Observation data for Lake McClellan 2NW on 03/24/2019      Previous  Date  Next       Current Mesonet Observations  Soil Data  Daily Summary Page  Observations in Plain Language
KMC5 240500Z 15006KT 11/02 A2998 RMK A01 T01110020  RH  054%=      5-min Rain = 0
KMC5 240501Z 15006KT 11/02 A2997 RMK A01 T01100019  RH  053%=      5-min Rain = 0
KMC5 240502Z 15006KT 11/02 A2997 RMK A01 T01110020  RH  053%=      5-min Rain = 0
KMC5 240503Z 15006KT 11/02 A2997 RMK A01 T01100020  RH  054%=      5-min Rain = 0
KMC5 240504Z 15007KT 11/02 A2997 RMK A01 T01100021  RH  054%=      5-min Rain = 0
KMC5 240505Z 15007KT 11/02 A2997 RMK A01 T01090021  RH  055%=      5-min Rain = 0
KMC5 240506Z 15007KT 11/02 A2997 RMK A01 T01070022  RH  056%=      5-min Rain = 0
KMC5 240507Z 15007KT 11/02 A2997 RMK A01 T01070022  RH  056%=      5-min Rain = 0
KMC5 240508Z 15007KT 11/02 A2997 RMK A01 T01060023  RH  056%=      5-min Rain = 0
KMC5 240509Z 15007KT 11/02 A2997 RMK A01 T01070024  RH  056%=      5-min Rain = 0
KMC5 240510Z 15007KT 11/02 A2997 RMK A01 T01060024  RH  057%=      5-min Rain = 0
KMC5 240511Z 15007KT 11/02 A2997 RMK A01 T01060024  RH  057%=      5-min Rain = 0
KMC5 240512Z 15008KT 11/02 A2997 RMK A01 T01060023  RH  056%=      5-min Rain = 0
KMC5 240513Z 15007KT 11/02 A2997 RMK A01 T01080023  RH  056%=      5-min Rain = 0
KMC5 240514Z 15007KT 11/02 A2997 RMK A01 T01090024  RH  056%=      5-min Rain = 0
KMC5 240515Z 15007KT 11/02 A2997 RMK A01 T01090024  RH  056%=      5-min Rain = 0
KMC5 240516Z 15007KT 11/02 A2997 RMK A01 T01080023  RH  055%=      5-min Rain = 0
KMC5 240517Z 16007KT 11/02 A2997 RMK A01 T01080023  RH  055%=      5-min Rain = 0
KMC5 240518Z 16007KT 11/02 A2997 RMK A01 T01090023  RH  056%=      5-min Rain = 0
KMC5 240519Z 17007KT 11/02 A2997 RMK A01 T01080023  RH  056%=      5-min Rain = 0
KMC5 240520Z 17006KT 11/02 A2997 RMK A01 T01080023  RH  056%=      5-min Rain = 0
KMC5 240521Z 17006KT 11/02 A2997 RMK A01 T01080023  RH  056%=      5-min Rain = 0
KMC5 240522Z 16007KT 11/02 A2997 RMK A01 T01080023  RH  056%=      5-min Rain = 0
KMC5 240523Z 16007KT 11/02 A2997 RMK A01 T01080024  RH  056%=      5-min Rain = 0
KMC5 240524Z 17007KT 11/02 A2997 RMK A01 T01080024  RH  056%=      5-min Rain = 0
KMC5 240525Z 16007KT 11/02 A2997 RMK A01 T01090023  RH  055%=      5-min Rain = 0
KMC5 240526Z 16007KT 11/02 A2997 RMK A01 T01130023  RH  054%=      5-min Rain = 0
KMC5 240527Z 16007KT 11/02 A2997 RMK A01 T01130024  RH  054%=      5-min Rain = 0
KMC5 240528Z 15007KT 11/02 A2997 RMK A01 T01130023  RH  054%=      5-min Rain = 0
KMC5 240529Z 16006KT 11/02 A2997 RMK A01 T01120022  RH  054%=      5-min Rain = 0
KMC5 240530Z 16006KT 11/02 A2997 RMK A01 T01120022  RH  054%=      5-min Rain = 0
KMC5 240531Z 14007KT 11/02 A2997 RMK A01 T01120022  RH  054%=      5-min Rain = 0
KMC5 240532Z 15006KT 11/02 A2997 RMK A01 T01110021  RH  054%=      5-min Rain = 0
KMC5 240533Z 15006KT 11/02 A2997 RMK A01 T01120020  RH  053%=      5-min Rain = 0
KMC5 240534Z 14006KT 11/02 A2997 RMK A01 T01120020  RH  053%=      5-min Rain = 0
KMC5 240535Z 16007KT 11/02 A2997 RMK A01 T01120020  RH  053%=      5-min Rain = 0
KMC5 240536Z 15007KT 11/02 A2997 RMK A01 T01130019  RH  052%=      5-min Rain = 0
KMC5 240537Z 15006KT 12/02 A2997 RMK A01 T01150020  RH  052%=      5-min Rain = 0
KMC5 240538Z 15007KT 12/02 A2997 RMK A01 T01150018  RH  051%=      5-min Rain = 0
KMC5 240539Z 14009KT 12/02 A2997 RMK A01 T01160019  RH  051%=      5-min Rain = 0
KMC5 240540Z 14008KT 12/02 A2997 RMK A01 T01170017  RH  050%=      5-min Rain = 0
KMC5 240541Z 15007KT 12/02 A2997 RMK A01 T01180019  RH  051%=      5-min Rain = 0
KMC5 240542Z 14007KT 12/02 A2997 RMK A01 T01160019  RH  051%=      5-min Rain = 0
KMC5 240543Z 15008KT 12/02 A2997 RMK A01 T01160018  RH  051%=      5-min Rain = 0
KMC5 240544Z 15007KT 12/02 A2997 RMK A01 T01170019  RH  051%=      5-min Rain = 0
KMC5 240545Z 16007KT 12/02 A2997 RMK A01 T01180019  RH  051%=      5-min Rain = 0
KMC5 240546Z 15007KT 12/02 A2997 RMK A01 T01180020  RH  051%=      5-min Rain = 0
KMC5 240547Z 15005KT 12/02 A2997 RMK A01 T01160020  RH  052%=      5-min Rain = 0
KMC5 240548Z 15006KT 12/02 A2997 RMK A01 T01150019  RH  052%=      5-min Rain = 0
KMC5 240549Z 15006KT 11/02 A2997 RMK A01 T01140019  RH  052%=      5-min Rain = 0
KMC5 240550Z 14005KT 11/02 A2997 RMK A01 T01140019  RH  052%=      5-min Rain = 0
KMC5 240551Z 15006KT 11/02 A2997 RMK A01 T01140019  RH  052%=      5-min Rain = 0
KMC5 240552Z 15006KT 11/02 A2997 RMK A01 T01130020  RH  053%=      5-min Rain = 0
KMC5 240553Z 14006KT 11/02 A2997 RMK A01 T01120019  RH  053%=      5-min Rain = 0
KMC5 240554Z 15006KT 11/02 A2997 RMK A01 T01130019  RH  052%=      5-min Rain = 0
KMC5 240555Z 13006KT 11/02 A2997 RMK A01 T01140020  RH  052%=      5-min Rain = 0
KMC5 240556Z 13006KT 11/02 A2997 RMK A01 T01140019  RH  052%=      5-min Rain = 0
KMC5 240557Z 14007KT 11/02 A2997 RMK A01 T01120019  RH  052%=      5-min Rain = 0
KMC5 240558Z 15007KT 11/02 A2997 RMK A01 T01130017  RH  052%=      5-min Rain = 0
KMC5 240559Z 14007KT 11/02 A2997 RMK A01 T01140019  RH  052%=      5-min Rain = 0
KMC5 240600Z 14009KT 11/02 A2997 RMK A01 T01130017  RH  051%=      5-min Rain = 0
KMC5 240601Z 15007KT 12/02 A2997 RMK A01 T01150019  RH  052%=      5-min Rain = 0
KMC5 240602Z 15008KT 11/02 A2997 RMK A01 T01140020  RH  052%=      5-min Rain = 0
KMC5 240603Z 15008KT 11/02 A2997 RMK A01 T01140019  RH  052%=      5-min Rain = 0
KMC5 240604Z 14008KT 11/02 A2997 RMK A01 T01130019  RH  052%=      5-min Rain = 0
KMC5 240605Z 15008KT 11/02 A2997 RMK A01 T01140019  RH  052%=      5-min Rain = 0
KMC5 240606Z 15007KT 12/02 A2997 RMK A01 T01150018  RH  051%=      5-min Rain = 0
KMC5 240607Z 15008KT 12/02 A2997 RMK A01 T01160018  RH  051%=      5-min Rain = 0
KMC5 240608Z 15008KT 12/02 A2997 RMK A01 T01170019  RH  051%=      5-min Rain = 0
KMC5 240609Z 14007KT 12/02 A2997 RMK A01 T01170019  RH  051%=      5-min Rain = 0
KMC5 240610Z 13006KT 12/02 A2997 RMK A01 T01160019  RH  051%=      5-min Rain = 0
KMC5 240611Z 14008KT 12/02 A2997 RMK A01 T01150019  RH  052%=      5-min Rain = 0
KMC5 240612Z 15009KT 12/02 A2997 RMK A01 T01150018  RH  052%=      5-min Rain = 0
KMC5 240613Z 16007KT 12/02 A2997 RMK A01 T01150019  RH  052%=      5-min Rain = 0
KMC5 240614Z 17007KT 11/02 A2997 RMK A01 T01130020  RH  053%=      5-min Rain = 0
KMC5 240615Z 17007KT 11/02 A2997 RMK A01 T01100020  RH  054%=      5-min Rain = 0
KMC5 240616Z 17007KT 11/02 A2997 RMK A01 T01090018  RH  053%=      5-min Rain = 0
KMC5 240617Z 17007KT 11/02 A2997 RMK A01 T01110019  RH  053%=      5-min Rain = 0
KMC5 240618Z 15010KT 11/02 A2997 RMK A01 T01110019  RH  053%=      5-min Rain = 0
KMC5 240619Z 15010KT 11/02 A2996 RMK A01 T01120017  RH  052%=      5-min Rain = 0
KMC5 240620Z 15009KT 12/02 A2996 RMK A01 T01150018  RH  051%=      5-min Rain = 0
KMC5 240621Z 14011KT 12/02 A2996 RMK A01 T01160019  RH  051%=      5-min Rain = 0
KMC5 240622Z 14010KT 12/02 A2996 RMK A01 T01170015  RH  049%=      5-min Rain = 0
KMC5 240623Z 14010KT 12/02 A2997 RMK A01 T01200017  RH  049%=      5-min Rain = 0
KMC5 240624Z 16010KT 12/02 A2997 RMK A01 T01190016  RH  049%=      5-min Rain = 0
KMC5 240625Z 17010KT 12/02 A2997 RMK A01 T01190019  RH  051%=      5-min Rain = 0
KMC5 240626Z 16009KT 12/02 A2997 RMK A01 T01160019  RH  051%=      5-min Rain = 0
KMC5 240627Z 15010KT 12/02 A2997 RMK A01 T01150020  RH  052%=      5-min Rain = 0
KMC5 240628Z 14009KT 11/02 A2996 RMK A01 T01140016  RH  051%=      5-min Rain = 0
KMC5 240629Z 16009KT 12/02 A2996 RMK A01 T01160016  RH  050%=      5-min Rain = 0
KMC5 240630Z 16009KT 12/02 A2997 RMK A01 T01170018  RH  051%=      5-min Rain = 0
KMC5 240631Z 16010KT 12/02 A2997 RMK A01 T01170017  RH  050%=      5-min Rain = 0
KMC5 240632Z 17010KT 12/02 A2997 RMK A01 T01170017  RH  050%=      5-min Rain = 0
KMC5 240633Z 18009KT 12/02 A2997 RMK A01 T01180018  RH  050%=      5-min Rain = 0
KMC5 240634Z 18009KT 12/02 A2997 RMK A01 T01170019  RH  051%=      5-min Rain = 0
KMC5 240635Z 17009KT 12/02 A2997 RMK A01 T01150018  RH  051%=      5-min Rain = 0
KMC5 240636Z 17009KT 12/02 A2997 RMK A01 T01150016  RH  051%=      5-min Rain = 0
KMC5 240637Z 17008KT 12/02 A2997 RMK A01 T01160017  RH  051%=      5-min Rain = 0
KMC5 240638Z 17010KT 12/02 A2997 RMK A01 T01160016  RH  050%=      5-min Rain = 0
KMC5 240639Z 17009KT 12/02 A2997 RMK A01 T01160016  RH  050%=      5-min Rain = 0
KMC5 240640Z 16009KT 12/02 A2997 RMK A01 T01160016  RH  050%=      5-min Rain = 0
KMC5 240641Z 16010KT 12/02 A2997 RMK A01 T01160015  RH  050%=      5-min Rain = 0
KMC5 240642Z 16009KT 12/02 A2997 RMK A01 T01170015  RH  049%=      5-min Rain = 0
KMC5 240643Z 17009KT 12/02 A2997 RMK A01 T01170016  RH  050%=      5-min Rain = 0
KMC5 240644Z 17009KT 12/02 A2997 RMK A01 T01150016  RH  050%=      5-min Rain = 0
KMC5 240645Z 18009KT 12/02 A2997 RMK A01 T01150016  RH  050%=      5-min Rain = 0
KMC5 240646Z 17010KT 12/02 A2997 RMK A01 T01160015  RH  050%=      5-min Rain = 0
KMC5 240647Z 17009KT 12/01 A2997 RMK A01 T01190012  RH  048%=      5-min Rain = 0
KMC5 240648Z 17010KT 12/01 A2997 RMK A01 T01220014  RH  048%=      5-min Rain = 0
KMC5 240649Z 19010KT 12/02 A2997 RMK A01 T01230015  RH  048%=      5-min Rain = 0
KMC5 240650Z 19010KT 12/02 A2997 RMK A01 T01210016  RH  049%=      5-min Rain = 0
KMC5 240651Z 18009KT 12/02 A2997 RMK A01 T01180018  RH  050%=      5-min Rain = 0
KMC5 240652Z 17008KT 12/02 A2996 RMK A01 T01160017  RH  051%=      5-min Rain = 0
KMC5 240653Z 16008KT 12/02 A2996 RMK A01 T01160017  RH  051%=      5-min Rain = 0
KMC5 240654Z 16011KT 12/01 A2996 RMK A01 T01160014  RH  049%=      5-min Rain = 0
KMC5 240655Z 16009KT 12/02 A2996 RMK A01 T01190015  RH  049%=      5-min Rain = 0
KMC5 240656Z 16010KT 12/01 A2996 RMK A01 T01200013  RH  048%=      5-min Rain = 0
KMC5 240657Z 18010KT 12/02 A2996 RMK A01 T01210015  RH  048%=      5-min Rain = 0
KMC5 240658Z 19009KT 12/02 A2996 RMK A01 T01180017  RH  050%=      5-min Rain = 0
KMC5 240659Z 19007KT 12/02 A2996 RMK A01 T01150018  RH  051%=      5-min Rain = 0
KMC5 240700Z 17008KT 11/02 A2997 RMK A01 T01120019  RH  053%=      5-min Rain = 0
KMC5 240701Z 17010KT 11/02 A2996 RMK A01 T01110016  RH  052%=      5-min Rain = 0
KMC5 240702Z 18011KT 11/02 A2996 RMK A01 T01130016  RH  051%=      5-min Rain = 0
KMC5 240703Z 16010KT 12/02 A2996 RMK A01 T01150015  RH  050%=      5-min Rain = 0
KMC5 240704Z 16012KT 12/02 A2996 RMK A01 T01170016  RH  050%=      5-min Rain = 0
KMC5 240705Z 16012KT 12/01 A2996 RMK A01 T01180014  RH  049%=      5-min Rain = 0
KMC5 240706Z 16012KT 12/01 A2996 RMK A01 T01210014  RH  048%=      5-min Rain = 0
KMC5 240707Z 16012KT 12/02 A2996 RMK A01 T01220015  RH  048%=      5-min Rain = 0
KMC5 240708Z 16012KT 12/02 A2996 RMK A01 T01220016  RH  048%=      5-min Rain = 0
KMC5 240709Z 16012KT 12/02 A2996 RMK A01 T01210016  RH  049%=      5-min Rain = 0
KMC5 240710Z 16011KT 12/02 A2996 RMK A01 T01200017  RH  049%=      5-min Rain = 0
KMC5 240711Z 16011KT 12/02 A2996 RMK A01 T01180017  RH  050%=      5-min Rain = 0
KMC5 240712Z 17009KT 12/02 A2996 RMK A01 T01160018  RH  051%=      5-min Rain = 0
KMC5 240713Z 17009KT 11/02 A2996 RMK A01 T01140018  RH  052%=      5-min Rain = 0
KMC5 240714Z 17010KT 11/02 A2996 RMK A01 T01130017  RH  052%=      5-min Rain = 0
KMC5 240715Z 18011KT 11/02 A2996 RMK A01 T01140018  RH  051%=      5-min Rain = 0
KMC5 240716Z 17010KT 12/02 A2996 RMK A01 T01160017  RH  051%=      5-min Rain = 0
KMC5 240717Z 18010KT 12/02 A2996 RMK A01 T01160019  RH  051%=      5-min Rain = 0
KMC5 240718Z 17009KT 12/02 A2996 RMK A01 T01150017  RH  051%=      5-min Rain = 0
KMC5 240719Z 18008KT 12/02 A2996 RMK A01 T01150019  RH  052%=      5-min Rain = 0
KMC5 240720Z 18008KT 11/02 A2996 RMK A01 T01130020  RH  053%=      5-min Rain = 0
KMC5 240721Z 19008KT 11/02 A2996 RMK A01 T01110021  RH  054%=      5-min Rain = 0
KMC5 240722Z 19008KT 11/02 A2996 RMK A01 T01090021  RH  054%=      5-min Rain = 0
KMC5 240723Z 18009KT 11/02 A2996 RMK A01 T01080021  RH  055%=      5-min Rain = 0
KMC5 240724Z 18009KT 11/02 A2996 RMK A01 T01080020  RH  054%=      5-min Rain = 0
KMC5 240725Z 17010KT 11/02 A2996 RMK A01 T01110020  RH  054%=      5-min Rain = 0
KMC5 240726Z 17011KT 12/02 A2996 RMK A01 T01160020  RH  052%=      5-min Rain = 0
KMC5 240727Z 16011KT 12/02 A2996 RMK A01 T01170021  RH  052%=      5-min Rain = 0
KMC5 240728Z 16010KT 12/02 A2996 RMK A01 T01170021  RH  052%=      5-min Rain = 0
KMC5 240729Z 15010KT 12/02 A2996 RMK A01 T01170020  RH  051%=      5-min Rain = 0
KMC5 240730Z 16012KT 12/02 A2996 RMK A01 T01170020  RH  051%=      5-min Rain = 0
KMC5 240731Z 16010KT 12/02 A2996 RMK A01 T01210020  RH  050%=      5-min Rain = 0
KMC5 240732Z 17010KT 12/02 A2996 RMK A01 T01220021  RH  050%=      5-min Rain = 0
KMC5 240733Z 16011KT 12/02 A2996 RMK A01 T01210022  RH  051%=      5-min Rain = 0
KMC5 240734Z 17010KT 12/02 A2996 RMK A01 T01190023  RH  051%=      5-min Rain = 0
KMC5 240735Z 17008KT 12/02 A2997 RMK A01 T01180022  RH  052%=      5-min Rain = 0
KMC5 240736Z 18009KT 12/02 A2997 RMK A01 T01170022  RH  052%=      5-min Rain = 0
KMC5 240737Z 18009KT 12/02 A2997 RMK A01 T01170023  RH  053%=      5-min Rain = 0
KMC5 240738Z 18009KT 12/02 A2997 RMK A01 T01170023  RH  053%=      5-min Rain = 0
KMC5 240739Z 18009KT 12/02 A2997 RMK A01 T01160023  RH  053%=      5-min Rain = 0
KMC5 240740Z 20008KT 12/02 A2998 RMK A01 T01170023  RH  052%=      5-min Rain = 0
KMC5 240741Z 29007KT 12/02 A2999 RMK A01 T01180023  RH  052%=      5-min Rain = 0
KMC5 240742Z 33008KT 11/02 A2999 RMK A01 T01100024  RH  055%=      5-min Rain = 0
KMC5 240743Z 34008KT 10/03 A2999 RMK A01 T00990025  RH  060%=      5-min Rain = 0
KMC5 240744Z 33008KT 09/03 A2999 RMK A01 T00920026  RH  064%=      5-min Rain = 0
KMC5 240745Z 31006KT 09/03 A2999 RMK A01 T00880028  RH  066%=      5-min Rain = 0
KMC5 240746Z 30008KT 09/03 A2999 RMK A01 T00860026  RH  066%=      5-min Rain = 0
KMC5 240747Z 27004KT 09/02 A2999 RMK A01 T00940024  RH  062%=      5-min Rain = 0
KMC5 240748Z 32002KT 11/02 A2999 RMK A01 T01050023  RH  057%=      5-min Rain = 0
KMC5 240749Z 32008KT 11/03 A2999 RMK A01 T01100025  RH  056%=      5-min Rain = 0
KMC5 240750Z 34010G15KT 11/03 A2999 RMK A01 T01080025  RH  057%=      5-min Rain = 0
KMC5 240751Z 34013KT 10/03 A2999 RMK A01 T01040027  RH  059%=      5-min Rain = 0
KMC5 240752Z 34013KT 10/03 A2999 RMK A01 T00980027  RH  061%=      5-min Rain = 0
KMC5 240753Z 34012KT 09/03 A2999 RMK A01 T00940027  RH  063%=      5-min Rain = 0
KMC5 240754Z 34011KT 09/03 A2999 RMK A01 T00910026  RH  064%=      5-min Rain = 0
KMC5 240755Z 35009KT 09/03 A2999 RMK A01 T00920026  RH  063%=      5-min Rain = 0
KMC5 240756Z 35007KT 09/03 A2999 RMK A01 T00920026  RH  063%=      5-min Rain = 0
KMC5 240757Z 35008KT 09/03 A2999 RMK A01 T00930025  RH  063%=      5-min Rain = 0
KMC5 240758Z 35010KT 09/03 A2999 RMK A01 T00930025  RH  062%=      5-min Rain = 0
KMC5 240759Z 35013KT 09/03 A2999 RMK A01 T00930025  RH  063%=      5-min Rain = 0
KMC5 240800Z 34013KT 09/03 A2999 RMK A01 T00930026  RH  063%=      5-min Rain = 0
KMC5 240801Z 34012KT 09/03 A2999 RMK A01 T00920027  RH  064%=      5-min Rain = 0
KMC5 240802Z 34011KT 09/03 A2999 RMK A01 T00900027  RH  064%=      5-min Rain = 0
KMC5 240803Z 35010KT 09/03 A2999 RMK A01 T00890025  RH  065%=      5-min Rain = 0
KMC5 240804Z 00008KT 09/02 A2999 RMK A01 T00890024  RH  064%=      5-min Rain = 0
KMC5 240805Z 01007KT 09/02 A2998 RMK A01 T00900023  RH  063%=      5-min Rain = 0
KMC5 240806Z 02007KT 09/02 A2998 RMK A01 T00920023  RH  062%=      5-min Rain = 0
KMC5 240807Z 01007KT 09/02 A2998 RMK A01 T00920023  RH  062%=      5-min Rain = 0
KMC5 240808Z 00009KT 09/02 A2999 RMK A01 T00890023  RH  063%=      5-min Rain = 0
KMC5 240809Z 36008KT 09/02 A2999 RMK A01 T00880023  RH  064%=      5-min Rain = 0
KMC5 240810Z 36009KT 09/02 A2999 RMK A01 T00870024  RH  065%=      5-min Rain = 0
KMC5 240811Z 00009KT 09/02 A2999 RMK A01 T00850024  RH  065%=      5-min Rain = 0
KMC5 240812Z 01008KT 09/02 A2998 RMK A01 T00850024  RH  065%=      5-min Rain = 0
KMC5 240813Z 02007KT 09/02 A2998 RMK A01 T00850023  RH  065%=      5-min Rain = 0
KMC5 240814Z 02007KT 09/02 A2998 RMK A01 T00850022  RH  064%=      5-min Rain = 0
KMC5 240815Z 02006KT 09/02 A2998 RMK A01 T00850022  RH  064%=      5-min Rain = 0
KMC5 240816Z 02006KT 09/02 A2998 RMK A01 T00850021  RH  064%=      5-min Rain = 0
KMC5 240817Z 01007KT 09/02 A2998 RMK A01 T00860021  RH  064%=      5-min Rain = 0
KMC5 240818Z 00007KT 09/02 A2998 RMK A01 T00860022  RH  064%=      5-min Rain = 0
KMC5 240819Z 00008KT 09/02 A2999 RMK A01 T00860021  RH  064%=      5-min Rain = 0
KMC5 240820Z 01008KT 09/02 A2999 RMK A01 T00850021  RH  064%=      5-min Rain = 0
KMC5 240821Z 01008KT 09/02 A2999 RMK A01 T00850021  RH  064%=      5-min Rain = 0
KMC5 240822Z 01007KT 09/02 A2998 RMK A01 T00860021  RH  064%=      5-min Rain = 0
KMC5 240823Z 01006KT 09/02 A2998 RMK A01 T00860021  RH  063%=      5-min Rain = 0
KMC5 240824Z 02007KT 09/02 A2998 RMK A01 T00860021  RH  063%=      5-min Rain = 0
KMC5 240825Z 02007KT 09/02 A2998 RMK A01 T00860020  RH  063%=      5-min Rain = 0
KMC5 240826Z 02007KT 09/02 A2998 RMK A01 T00860019  RH  063%=      5-min Rain = 0
KMC5 240827Z 01007KT 09/02 A2999 RMK A01 T00870019  RH  062%=      5-min Rain = 0
KMC5 240828Z 01005KT 09/02 A2999 RMK A01 T00870019  RH  062%=      5-min Rain = 0
KMC5 240829Z 01005KT 09/02 A2999 RMK A01 T00860019  RH  063%=      5-min Rain = 0
KMC5 240830Z 00008KT 09/02 A2999 RMK A01 T00850019  RH  064%=      5-min Rain = 0
KMC5 240831Z 01008KT 08/02 A2999 RMK A01 T00840020  RH  064%=      5-min Rain = 0
KMC5 240832Z 01008KT 09/02 A2999 RMK A01 T00850020  RH  064%=      5-min Rain = 0
KMC5 240833Z 01008KT 09/02 A2999 RMK A01 T00860020  RH  063%=      5-min Rain = 0
KMC5 240834Z 01008KT 09/02 A2999 RMK A01 T00860020  RH  063%=      5-min Rain = 0
KMC5 240835Z 01008KT 09/02 A2999 RMK A01 T00870019  RH  062%=      5-min Rain = 0
KMC5 240836Z 01008KT 09/02 A2999 RMK A01 T00870019  RH  062%=      5-min Rain = 0
KMC5 240837Z 01009KT 09/02 A2999 RMK A01 T00870020  RH  063%=      5-min Rain = 0
KMC5 240838Z 01009KT 09/02 A2999 RMK A01 T00870020  RH  063%=      5-min Rain = 0
KMC5 240839Z 01009KT 09/02 A2999 RMK A01 T00870019  RH  062%=      5-min Rain = 0
KMC5 240840Z 01009KT 09/02 A2999 RMK A01 T00880018  RH  062%=      5-min Rain = 0
KMC5 240841Z 01009KT 09/02 A2999 RMK A01 T00880018  RH  062%=      5-min Rain = 0
KMC5 240842Z 01008KT 09/02 A2999 RMK A01 T00890019  RH  062%=      5-min Rain = 0
KMC5 240843Z 00008KT 09/02 A2999 RMK A01 T00890019  RH  062%=      5-min Rain = 0
KMC5 240844Z 00009KT 09/02 A2999 RMK A01 T00880018  RH  062%=      5-min Rain = 0
KMC5 240845Z 01009KT 09/02 A2999 RMK A01 T00880018  RH  061%=      5-min Rain = 0
KMC5 240846Z 00009KT 09/02 A2999 RMK A01 T00880019  RH  062%=      5-min Rain = 0
KMC5 240847Z 00009KT 09/02 A2999 RMK A01 T00870019  RH  063%=      5-min Rain = 0
KMC5 240848Z 00009KT 09/02 A2999 RMK A01 T00850019  RH  063%=      5-min Rain = 0
KMC5 240849Z 00010KT 08/02 A2999 RMK A01 T00840020  RH  064%=      5-min Rain = 0
KMC5 240850Z 00010KT 08/02 A2999 RMK A01 T00830020  RH  064%=      5-min Rain = 0
KMC5 240851Z 00010KT 08/02 A2999 RMK A01 T00830020  RH  065%=      5-min Rain = 0
KMC5 240852Z 00011KT 08/02 A2999 RMK A01 T00830020  RH  064%=      5-min Rain = 0
KMC5 240853Z 00010KT 08/02 A2999 RMK A01 T00830019  RH  064%=      5-min Rain = 0
KMC5 240854Z 00010KT 08/02 A2999 RMK A01 T00840019  RH  064%=      5-min Rain = 0
KMC5 240855Z 00010KT 08/02 A2999 RMK A01 T00840019  RH  064%=      5-min Rain = 0
KMC5 240856Z 00010KT 08/02 A2999 RMK A01 T00830019  RH  064%=      5-min Rain = 0
KMC5 240857Z 36011KT 08/02 A2999 RMK A01 T00830020  RH  064%=      5-min Rain = 0
KMC5 240858Z 36012KT 08/02 A2999 RMK A01 T00830019  RH  064%=      5-min Rain = 0
KMC5 240859Z 35011KT 08/02 A2999 RMK A01 T00840019  RH  064%=      5-min Rain = 0
KMC5 240900Z 35011KT 08/02 A2999 RMK A01 T00840019  RH  063%=      5-min Rain = 0
KMC5 240901Z 36011KT 08/02 A2999 RMK A01 T00840019  RH  063%=      5-min Rain = 0
KMC5 240902Z 35012KT 08/02 A2999 RMK A01 T00840020  RH  064%=      5-min Rain = 0
KMC5 240903Z 35012KT 08/02 A2999 RMK A01 T00830020  RH  065%=      5-min Rain = 0
KMC5 240904Z 35012KT 08/02 A2999 RMK A01 T00820020  RH  065%=      5-min Rain = 0
KMC5 240905Z 35012KT 08/02 A2999 RMK A01 T00810021  RH  066%=      5-min Rain = 0
KMC5 240906Z 35013KT 08/02 A2999 RMK A01 T00800021  RH  066%=      5-min Rain = 0
KMC5 240907Z 35013KT 08/02 A2999 RMK A01 T00790021  RH  067%=      5-min Rain = 0
KMC5 240908Z 35013KT 08/02 A2999 RMK A01 T00780021  RH  067%=      5-min Rain = 0
KMC5 240909Z 35012KT 08/02 A2999 RMK A01 T00780021  RH  067%=      5-min Rain = 0
KMC5 240910Z 35012KT 08/02 A2999 RMK A01 T00770021  RH  068%=      5-min Rain = 0
KMC5 240911Z 35012KT 08/02 A2999 RMK A01 T00760022  RH  068%=      5-min Rain = 0
KMC5 240912Z 35013KT 08/02 A2999 RMK A01 T00760023  RH  069%=      5-min Rain = 0
KMC5 240913Z 35013KT 08/02 A2999 RMK A01 T00750023  RH  069%=      5-min Rain = 0
KMC5 240914Z 34014KT 07/02 A2999 RMK A01 T00740023  RH  070%=      5-min Rain = 0
KMC5 240915Z 35014KT 07/02 A2999 RMK A01 T00730024  RH  071%=      5-min Rain = 0
KMC5 240916Z 34014KT 07/03 A2999 RMK A01 T00720025  RH  072%=      5-min Rain = 0
KMC5 240917Z 35013KT 07/03 A2999 RMK A01 T00720026  RH  073%=      5-min Rain = 0
KMC5 240918Z 35013KT 07/03 A2999 RMK A01 T00710027  RH  073%=      5-min Rain = 0
KMC5 240919Z 35013KT 07/03 A2999 RMK A01 T00700027  RH  074%=      5-min Rain = 0
KMC5 240920Z 35013KT 07/03 A2999 RMK A01 T00690028  RH  075%=      5-min Rain = 0
KMC5 240921Z 35014KT 07/03 A2999 RMK A01 T00690027  RH  075%=      5-min Rain = 0
KMC5 240922Z 35013KT 07/03 A30 RMK A01 T00690028  RH  075%=      5-min Rain = 0
KMC5 240923Z 35014KT 07/03 A2999 RMK A01 T00690028  RH  075%=      5-min Rain = 0
KMC5 240924Z 35013KT 07/03 A2999 RMK A01 T00680028  RH  075%=      5-min Rain = 0
KMC5 240925Z 35014KT 07/03 A2999 RMK A01 T00680028  RH  076%=      5-min Rain = 0
KMC5 240926Z 35013KT 07/03 A2999 RMK A01 T00680029  RH  076%=      5-min Rain = 0
KMC5 240927Z 35014KT 07/03 A30 RMK A01 T00680029  RH  077%=      5-min Rain = 0
KMC5 240928Z 35013KT 07/03 A30 RMK A01 T00670030  RH  077%=      5-min Rain = 0
KMC5 240929Z 35013KT 07/03 A30 RMK A01 T00670030  RH  077%=      5-min Rain = 0
KMC5 240930Z 35013KT 07/03 A30 RMK A01 T00670030  RH  077%=      5-min Rain = 0
KMC5 240931Z 36013KT 07/03 A30 RMK A01 T00670030  RH  077%=      5-min Rain = 0
KMC5 240932Z 36013KT 07/03 A30 RMK A01 T00670030  RH  077%=      5-min Rain = 0
KMC5 240933Z 00014KT 07/03 A30 RMK A01 T00670030  RH  077%=      5-min Rain = 0
KMC5 240934Z 36014KT 07/03 A30 RMK A01 T00670031  RH  078%=      5-min Rain = 0
KMC5 240935Z 36014KT 07/03 A30 RMK A01 T00670031  RH  078%=      5-min Rain = 0
KMC5 240936Z 00014KT 07/03 A30 RMK A01 T00670031  RH  078%=      5-min Rain = 0
KMC5 240937Z 36013KT 07/03 A30 RMK A01 T00670031  RH  078%=      5-min Rain = 0
KMC5 240938Z 36013KT 07/03 A30 RMK A01 T00670031  RH  078%=      5-min Rain = 0
KMC5 240939Z 36014KT 07/03 A30 RMK A01 T00670032  RH  078%=      5-min Rain = 0
KMC5 240940Z 36013KT 07/03 A30 RMK A01 T00670032  RH  078%=      5-min Rain = 0
KMC5 240941Z 35014KT 07/03 A30 RMK A01 T00670032  RH  078%=      5-min Rain = 0
KMC5 240942Z 35015KT 07/03 A30 RMK A01 T00670032  RH  079%=      5-min Rain = 0
KMC5 240943Z 35014KT 07/03 A30 RMK A01 T00670032  RH  078%=      5-min Rain = 0
KMC5 240944Z 35014KT 07/03 A30 RMK A01 T00680033  RH  078%=      5-min Rain = 0
KMC5 240945Z 35015KT 07/03 A30 RMK A01 T00670032  RH  079%=      5-min Rain = 0
KMC5 240946Z 35013KT 07/03 A3001 RMK A01 T00670032  RH  079%=      5-min Rain = 0
KMC5 240947Z 35014KT 07/03 A3001 RMK A01 T00660033  RH  079%=      5-min Rain = 0
KMC5 240948Z 35014KT 07/03 A30 RMK A01 T00660033  RH  079%=      5-min Rain = 0
KMC5 240949Z 35014KT 07/03 A30 RMK A01 T00650033  RH  080%=      5-min Rain = 0
KMC5 240950Z 35015KT 07/03 A30 RMK A01 T00650033  RH  080%=      5-min Rain = 0
KMC5 240951Z 35015KT 07/03 A30 RMK A01 T00650033  RH  080%=      5-min Rain = 0
KMC5 240952Z 35015KT 07/03 A30 RMK A01 T00650033  RH  080%=      5-min Rain = 0
KMC5 240953Z 35015KT 07/03 A30 RMK A01 T00650033  RH  080%=      5-min Rain = 0
KMC5 240954Z 35015KT 07/03 A30 RMK A01 T00650034  RH  080%=      5-min Rain = 0
KMC5 240955Z 35015KT 07/03 A30 RMK A01 T00650034  RH  081%=      5-min Rain = 0
KMC5 240956Z 35016KT 07/03 A30 RMK A01 T00650034  RH  081%=      5-min Rain = 0
KMC5 240957Z 35014KT 07/03 A3001 RMK A01 T00650034  RH  081%=      5-min Rain = 0
KMC5 240958Z 35014KT 06/03 A3001 RMK A01 T00640034  RH  081%=      5-min Rain = 0
KMC5 240959Z 35014KT 06/03 A3001 RMK A01 T00630034  RH  082%=      5-min Rain = 0
KMC5 241000Z 35014KT 06/03 A3001 RMK A01 T00630034  RH  082%=      5-min Rain = 0
KMC5 241001Z 35015KT 06/03 A3001 RMK A01 T00630034  RH  082%=      5-min Rain = 0
KMC5 241002Z 34015KT 06/04 A3001 RMK A01 T00630035  RH  082%=      5-min Rain = 0
KMC5 241003Z 35016KT 06/04 A3001 RMK A01 T00620035  RH  083%=      5-min Rain = 0
KMC5 241004Z 35014KT 06/04 A3001 RMK A01 T00620035  RH  083%=      5-min Rain = 0
KMC5 241005Z 35015KT 06/04 A3001 RMK A01 T00620035  RH  083%=      5-min Rain = 0
KMC5 241006Z 35015KT 06/04 A3001 RMK A01 T00620035  RH  083%=      5-min Rain = 0
KMC5 241007Z 35015KT 06/04 A3001 RMK A01 T00620035  RH  083%=      5-min Rain = 0
KMC5 241008Z 35015KT 06/04 A3001 RMK A01 T00620035  RH  083%=      5-min Rain = 0
KMC5 241009Z 35014KT 06/04 A3001 RMK A01 T00620035  RH  083%=      5-min Rain = 0
KMC5 241010Z 35014KT 06/03 A3001 RMK A01 T00620034  RH  083%=      5-min Rain = 0
KMC5 241011Z 35013KT 06/04 A3001 RMK A01 T00620035  RH  083%=      5-min Rain = 0
KMC5 241012Z 35015KT 06/03 A3001 RMK A01 T00610034  RH  083%=      5-min Rain = 0
KMC5 241013Z 35014KT 06/03 A3001 RMK A01 T00620034  RH  083%=      5-min Rain = 0
KMC5 241014Z 35016KT 06/03 A3001 RMK A01 T00620034  RH  082%=      5-min Rain = 0
KMC5 241015Z 35016KT 06/03 A3001 RMK A01 T00620034  RH  082%=      5-min Rain = 0
KMC5 241016Z 35015KT 06/03 A3001 RMK A01 T00630034  RH  082%=      5-min Rain = 0
KMC5 241017Z 35015KT 06/03 A3001 RMK A01 T00630034  RH  082%=      5-min Rain = 0
KMC5 241018Z 35015KT 06/03 A3001 RMK A01 T00630034  RH  082%=      5-min Rain = 0
KMC5 241019Z 35015KT 06/03 A3001 RMK A01 T00620034  RH  082%=      5-min Rain = 0
KMC5 241020Z 35015KT 06/03 A3001 RMK A01 T00620034  RH  082%=      5-min Rain = 0
KMC5 241021Z 35016KT 06/03 A3001 RMK A01 T00620034  RH  082%=      5-min Rain = 0
KMC5 241022Z 35015KT 06/03 A3001 RMK A01 T00610034  RH  082%=      5-min Rain = 0
KMC5 241023Z 35015KT 06/03 A3001 RMK A01 T00610034  RH  083%=      5-min Rain = 0
KMC5 241024Z 34014KT 06/03 A3001 RMK A01 T00620034  RH  083%=      5-min Rain = 0
KMC5 241025Z 34015KT 06/03 A3001 RMK A01 T00610034  RH  083%=      5-min Rain = 0
KMC5 241026Z 34015KT 06/03 A3001 RMK A01 T00610034  RH  083%=      5-min Rain = 0
KMC5 241027Z 34015KT 06/03 A3001 RMK A01 T00600034  RH  083%=      5-min Rain = 0
KMC5 241028Z 35015KT 06/03 A3001 RMK A01 T00600034  RH  083%=      5-min Rain = 0
KMC5 241029Z 35015KT 06/03 A3001 RMK A01 T00600034  RH  083%=      5-min Rain = 0
KMC5 241030Z 35015KT 06/03 A3001 RMK A01 T00600034  RH  083%=      5-min Rain = 0
KMC5 241031Z 35014KT 06/03 A3001 RMK A01 T00610034  RH  083%=      5-min Rain = 0
KMC5 241032Z 35015KT 06/03 A3001 RMK A01 T00600034  RH  083%=      5-min Rain = 0
KMC5 241033Z 34015KT 06/03 A3001 RMK A01 T00600034  RH  083%=      5-min Rain = 0
KMC5 241034Z 34014KT 06/03 A3001 RMK A01 T00600034  RH  083%=      5-min Rain = 0
KMC5 241035Z 34014KT 06/03 A3001 RMK A01 T00600034  RH  083%=      5-min Rain = 0
KMC5 241036Z 34014KT 06/03 A3001 RMK A01 T00600034  RH  083%=      5-min Rain = 0
KMC5 241037Z 34015KT 06/03 A3001 RMK A01 T00600034  RH  084%=      5-min Rain = 0
KMC5 241038Z 34014KT 06/03 A3001 RMK A01 T00590034  RH  084%=      5-min Rain = 0
KMC5 241039Z 34015KT 06/03 A3001 RMK A01 T00580034  RH  084%=      5-min Rain = 0
KMC5 241040Z 34015KT 06/03 A3001 RMK A01 T00580033  RH  084%=      5-min Rain = 0
KMC5 241041Z 34015KT 06/03 A3001 RMK A01 T00580034  RH  084%=      5-min Rain = 0
KMC5 241042Z 34015KT 06/03 A3002 RMK A01 T00580034  RH  084%=      5-min Rain = 0
KMC5 241043Z 34015KT 06/03 A3002 RMK A01 T00580034  RH  084%=      5-min Rain = 0
KMC5 241044Z 35016KT 06/03 A3001 RMK A01 T00580034  RH  084%=      5-min Rain = 0
KMC5 241045Z 34014KT 06/03 A3001 RMK A01 T00580033  RH  084%=      5-min Rain = 0
KMC5 241046Z 35015KT 06/03 A3002 RMK A01 T00580033  RH  084%=      5-min Rain = 0
KMC5 241047Z 34014KT 06/03 A3002 RMK A01 T00590033  RH  084%=      5-min Rain = 0
KMC5 241048Z 35014KT 06/03 A3002 RMK A01 T00580033  RH  084%=      5-min Rain = 0
KMC5 241049Z 34015KT 06/03 A3002 RMK A01 T00580033  RH  084%=      5-min Rain = 0
KMC5 241050Z 34015KT 06/03 A3002 RMK A01 T00580033  RH  084%=      5-min Rain = 0
KMC5 241051Z 34015KT 06/03 A3002 RMK A01 T00580033  RH  084%=      5-min Rain = 0
KMC5 241052Z 34015KT 06/03 A3002 RMK A01 T00580033  RH  084%=      5-min Rain = 0
KMC5 241053Z 34015KT 06/03 A3002 RMK A01 T00580033  RH  084%=      5-min Rain = 0
KMC5 241054Z 34015KT 06/03 A3002 RMK A01 T00580033  RH  084%=      5-min Rain = 0
KMC5 241055Z 34014KT 06/03 A3002 RMK A01 T00580033  RH  084%=      5-min Rain = 0
KMC5 241056Z 34014KT 06/03 A3002 RMK A01 T00580033  RH  084%=      5-min Rain = 0
KMC5 241057Z 34013KT 06/03 A3002 RMK A01 T00580033  RH  084%=      5-min Rain = 0
KMC5 241058Z 34014KT 06/03 A3002 RMK A01 T00570033  RH  085%=      5-min Rain = 0
KMC5 241059Z 34014KT 06/03 A3002 RMK A01 T00560032  RH  085%=      5-min Rain = 0
KMC5 241100Z 34014KT 06/03 A3002 RMK A01 T00560032  RH  085%=      5-min Rain = 0
KMC5 241101Z 34013KT 06/03 A3002 RMK A01 T00560032  RH  085%=      5-min Rain = 0
KMC5 241102Z 34014KT 06/03 A3002 RMK A01 T00560032  RH  085%=      5-min Rain = 0
KMC5 241103Z 34014KT 06/03 A3002 RMK A01 T00560032  RH  085%=      5-min Rain = 0
KMC5 241104Z 33014KT 06/03 A3002 RMK A01 T00550032  RH  085%=      5-min Rain = 0
KMC5 241105Z 33013KT 06/03 A3002 RMK A01 T00550032  RH  085%=      5-min Rain = 0
KMC5 241106Z 33014KT 06/03 A3002 RMK A01 T00550032  RH  085%=      5-min Rain = 0
KMC5 241107Z 33014KT 05/03 A3002 RMK A01 T00540031  RH  086%=      5-min Rain = 0
KMC5 241108Z 33014KT 05/03 A3002 RMK A01 T00540032  RH  086%=      5-min Rain = 0
KMC5 241109Z 33014KT 05/03 A3002 RMK A01 T00530031  RH  086%=      5-min Rain = 0
KMC5 241110Z 33014KT 05/03 A3002 RMK A01 T00530031  RH  086%=      5-min Rain = 0
KMC5 241111Z 33014KT 05/03 A3003 RMK A01 T00520031  RH  086%=      5-min Rain = 0
KMC5 241112Z 33014KT 05/03 A3003 RMK A01 T00510031  RH  087%=      5-min Rain = 0
KMC5 241113Z 33014KT 05/03 A3003 RMK A01 T00500031  RH  087%=      5-min Rain = 0
KMC5 241114Z 33014KT 05/03 A3003 RMK A01 T00500031  RH  088%=      5-min Rain = 0
KMC5 241115Z 33015KT 05/03 A3003 RMK A01 T00500031  RH  088%=      5-min Rain = 0
KMC5 241116Z 33014KT 05/03 A3003 RMK A01 T00500031  RH  088%=      5-min Rain = 0
KMC5 241117Z 33014KT 05/03 A3003 RMK A01 T00490031  RH  088%=      5-min Rain = 0
KMC5 241118Z 33014KT 05/03 A3003 RMK A01 T00490031  RH  088%=      5-min Rain = 0
KMC5 241119Z 33014KT 05/03 A3003 RMK A01 T00490030  RH  088%=      5-min Rain = 0
KMC5 241120Z 33015KT 05/03 A3003 RMK A01 T00490031  RH  088%=      5-min Rain = 0
KMC5 241121Z 34015KT 05/03 A3003 RMK A01 T00490031  RH  088%=      5-min Rain = 0
KMC5 241122Z 33014KT 05/03 A3003 RMK A01 T00490030  RH  088%=      5-min Rain = 0
KMC5 241123Z 33014KT 05/03 A3003 RMK A01 T00490030  RH  088%=      5-min Rain = 0
KMC5 241124Z 33014KT 05/03 A3003 RMK A01 T00490031  RH  088%=      5-min Rain = 0
KMC5 241125Z 33015KT 05/03 A3003 RMK A01 T00500031  RH  087%=      5-min Rain = 0
KMC5 241126Z 33014KT 05/03 A3003 RMK A01 T00490030  RH  087%=      5-min Rain = 0
KMC5 241127Z 33015KT 05/03 A3003 RMK A01 T00500030  RH  087%=      5-min Rain = 0
KMC5 241128Z 34014KT 05/03 A3003 RMK A01 T00500030  RH  087%=      5-min Rain = 0
KMC5 241129Z 33014KT 05/03 A3003 RMK A01 T00500030  RH  087%=      5-min Rain = 0
KMC5 241130Z 34015KT 05/03 A3003 RMK A01 T00500030  RH  087%=      5-min Rain = 0
KMC5 241131Z 33014KT 05/03 A3003 RMK A01 T00500031  RH  087%=      5-min Rain = 0
KMC5 241132Z 34016KT 05/03 A3003 RMK A01 T00500031  RH  087%=      5-min Rain = 0
KMC5 241133Z 34015KT 05/03 A3003 RMK A01 T00500030  RH  087%=      5-min Rain = 0
KMC5 241134Z 33015KT 05/03 A3003 RMK A01 T00500030  RH  087%=      5-min Rain = 0
KMC5 241135Z 34015KT 05/03 A3003 RMK A01 T00500030  RH  087%=      5-min Rain = 0
KMC5 241136Z 34015KT 05/03 A3003 RMK A01 T00500030  RH  087%=      5-min Rain = 0
KMC5 241137Z 34015KT 05/03 A3003 RMK A01 T00500030  RH  087%=      5-min Rain = 0
KMC5 241138Z 33015KT 05/03 A3003 RMK A01 T00500030  RH  087%=      5-min Rain = 0
KMC5 241139Z 34015KT 05/03 A3003 RMK A01 T00500030  RH  087%=      5-min Rain = 0
KMC5 241140Z 33015KT 05/03 A3003 RMK A01 T00500030  RH  087%=      5-min Rain = 0
KMC5 241141Z 34015KT 05/03 A3003 RMK A01 T00500030  RH  087%=      5-min Rain = 0
KMC5 241142Z 34014KT 05/03 A3003 RMK A01 T00500030  RH  087%=      5-min Rain = 0
KMC5 241143Z 34014KT 05/03 A3003 RMK A01 T00490030  RH  087%=      5-min Rain = 0
KMC5 241144Z 34015KT 05/03 A3003 RMK A01 T00490030  RH  087%=      5-min Rain = 0
KMC5 241145Z 34015KT 05/03 A3003 RMK A01 T00490030  RH  087%=      5-min Rain = 0
KMC5 241146Z 34015KT 05/03 A3002 RMK A01 T00490030  RH  087%=      5-min Rain = 0
KMC5 241147Z 34014KT 05/03 A3002 RMK A01 T00490029  RH  087%=      5-min Rain = 0
KMC5 241148Z 34014KT 05/03 A3002 RMK A01 T00490030  RH  087%=      5-min Rain = 0
KMC5 241149Z 34013KT 05/03 A3002 RMK A01 T00490030  RH  087%=      5-min Rain = 0
KMC5 241150Z 34014KT 05/03 A3003 RMK A01 T00490030  RH  088%=      5-min Rain = 0
KMC5 241151Z 34014KT 05/03 A3003 RMK A01 T00490030  RH  088%=      5-min Rain = 0
KMC5 241152Z 34013KT 05/03 A3003 RMK A01 T00490030  RH  088%=      5-min Rain = 0
KMC5 241153Z 34014KT 05/03 A3003 RMK A01 T00480029  RH  088%=      5-min Rain = 0
KMC5 241154Z 34012KT 05/03 A3003 RMK A01 T00480029  RH  087%=      5-min Rain = 0
KMC5 241155Z 34013KT 05/03 A3003 RMK A01 T00480029  RH  087%=      5-min Rain = 0
KMC5 241156Z 34014KT 05/03 A3003 RMK A01 T00480029  RH  087%=      5-min Rain = 0
KMC5 241157Z 34013KT 05/03 A3003 RMK A01 T00480029  RH  087%=      5-min Rain = 0
KMC5 241158Z 34014KT 05/03 A3003 RMK A01 T00480029  RH  088%=      5-min Rain = 0
KMC5 241159Z 34014KT 05/03 A3003 RMK A01 T00480029  RH  088%=      5-min Rain = 0
KMC5 241200Z 34014KT 05/03 A3003 RMK A01 T00480029  RH  088%=      5-min Rain = 0
KMC5 241201Z 34014KT 05/03 A3003 RMK A01 T00480029  RH  088%=      5-min Rain = 0
KMC5 241202Z 34013KT 05/03 A3003 RMK A01 T00480029  RH  088%=      5-min Rain = 0
KMC5 241203Z 34014KT 05/03 A3003 RMK A01 T00480029  RH  088%=      5-min Rain = 0
KMC5 241204Z 34014KT 05/03 A3003 RMK A01 T00480029  RH  088%=      5-min Rain = 0
KMC5 241205Z 34014KT 05/03 A3003 RMK A01 T00480029  RH  088%=      5-min Rain = 0
KMC5 241206Z 34014KT 05/03 A3003 RMK A01 T00480029  RH  087%=      5-min Rain = 0
KMC5 241207Z 34015KT 05/03 A3003 RMK A01 T00480029  RH  087%=      5-min Rain = 0
KMC5 241208Z 34014KT 05/03 A3003 RMK A01 T00480029  RH  087%=      5-min Rain = 0
KMC5 241209Z 34014KT 05/03 A3003 RMK A01 T00480029  RH  087%=      5-min Rain = 0
KMC5 241210Z 34014KT 05/03 A3003 RMK A01 T00480029  RH  087%=      5-min Rain = 0
KMC5 241211Z 34014KT 05/03 A3003 RMK A01 T00480029  RH  087%=      5-min Rain = 0
KMC5 241212Z 34013KT 05/03 A3003 RMK A01 T00490029  RH  087%=      5-min Rain = 0
KMC5 241213Z 33014KT 05/03 A3003 RMK A01 T00490029  RH  087%=      5-min Rain = 0
KMC5 241214Z 34014KT 05/03 A3003 RMK A01 T00490029  RH  087%=      5-min Rain = 0
KMC5 241215Z 33014KT 05/03 A3003 RMK A01 T00490029  RH  087%=      5-min Rain = 0
KMC5 241216Z 34014KT 05/03 A3003 RMK A01 T00490029  RH  087%=      5-min Rain = 0
KMC5 241217Z 33014KT 05/03 A3003 RMK A01 T00480029  RH  087%=      5-min Rain = 0
KMC5 241218Z 33013KT 05/03 A3003 RMK A01 T00480029  RH  087%=      5-min Rain = 0
KMC5 241219Z 33014KT 05/03 A3003 RMK A01 T00480029  RH  087%=      5-min Rain = 0
KMC5 241220Z 33014KT 05/03 A3003 RMK A01 T00480029  RH  088%=      5-min Rain = 0
KMC5 241221Z 33014KT 05/03 A3003 RMK A01 T00480029  RH  088%=      5-min Rain = 0
KMC5 241222Z 33014KT 05/03 A3003 RMK A01 T00480029  RH  088%=      5-min Rain = 0
KMC5 241223Z 33014KT 05/03 A3003 RMK A01 T00480029  RH  088%=      5-min Rain = 0
KMC5 241224Z 33014KT 05/03 A3003 RMK A01 T00480029  RH  088%=      5-min Rain = 0
KMC5 241225Z 33014KT 05/03 A3003 RMK A01 T00470029  RH  088%=      5-min Rain = 0
KMC5 241226Z 33014KT 05/03 A3003 RMK A01 T00470029  RH  088%=      5-min Rain = 0
KMC5 241227Z 33014KT 05/03 A3003 RMK A01 T00470028  RH  088%=      5-min Rain = 0
KMC5 241228Z 33014KT 05/03 A3003 RMK A01 T00460028  RH  088%=      5-min Rain = 0
KMC5 241229Z 33015KT 05/03 A3003 RMK A01 T00470028  RH  088%=      5-min Rain = 0
KMC5 241230Z 34015KT 05/03 A3003 RMK A01 T00470028  RH  088%=      5-min Rain = 0
KMC5 241231Z 34015KT 05/03 A3003 RMK A01 T00470028  RH  088%=      5-min Rain = 0
KMC5 241232Z 33014KT 05/03 A3003 RMK A01 T00470028  RH  088%=      5-min Rain = 0
KMC5 241233Z 33014KT 05/03 A3003 RMK A01 T00470028  RH  088%=      5-min Rain = 0
KMC5 241234Z 33014KT 05/03 A3003 RMK A01 T00470028  RH  088%=      5-min Rain = 0
KMC5 241235Z 33015KT 05/03 A3003 RMK A01 T00460028  RH  088%=      5-min Rain = 0
KMC5 241236Z 33014KT 05/03 A3003 RMK A01 T00470028  RH  088%=      5-min Rain = 0
KMC5 241237Z 33015KT 05/03 A3003 RMK A01 T00460028  RH  088%=      5-min Rain = 0
KMC5 241238Z 33015KT 05/03 A3003 RMK A01 T00460028  RH  088%=      5-min Rain = 0
KMC5 241239Z 33015KT 05/03 A3003 RMK A01 T00460028  RH  088%=      5-min Rain = 0
KMC5 241240Z 33016KT 05/03 A3003 RMK A01 T00460028  RH  088%=      5-min Rain = 0
KMC5 241241Z 33015KT 05/03 A3003 RMK A01 T00460028  RH  088%=      5-min Rain = 0
KMC5 241242Z 33015KT 05/03 A3003 RMK A01 T00460028  RH  088%=      5-min Rain = 0
KMC5 241243Z 33016KT 05/03 A3003 RMK A01 T00470028  RH  088%=      5-min Rain = 0
KMC5 241244Z 33017KT 05/03 A3003 RMK A01 T00470028  RH  088%=      5-min Rain = 0
KMC5 241245Z 33016KT 05/03 A3003 RMK A01 T00460028  RH  088%=      5-min Rain = 0
KMC5 241246Z 33016KT 05/03 A3003 RMK A01 T00470028  RH  088%=      5-min Rain = 0
KMC5 241247Z 33015KT 05/03 A3003 RMK A01 T00470028  RH  088%=      5-min Rain = 0
KMC5 241248Z 34015KT 05/03 A3003 RMK A01 T00470028  RH  088%=      5-min Rain = 0
KMC5 241249Z 34016KT 05/03 A3003 RMK A01 T00470028  RH  088%=      5-min Rain = 0
KMC5 241250Z 34016KT 05/03 A3003 RMK A01 T00470028  RH  087%=      5-min Rain = 0
KMC5 241251Z 33016KT 05/03 A3003 RMK A01 T00470028  RH  087%=      5-min Rain = 0
KMC5 241252Z 33016KT 05/03 A3003 RMK A01 T00470028  RH  087%=      5-min Rain = 0
KMC5 241253Z 34016KT 05/03 A3004 RMK A01 T00480028  RH  087%=      5-min Rain = 0
KMC5 241254Z 33016KT 05/03 A3004 RMK A01 T00480028  RH  087%=      5-min Rain = 0
KMC5 241255Z 33016KT 05/03 A3004 RMK A01 T00480028  RH  087%=      5-min Rain = 0
KMC5 241256Z 33015KT 05/03 A3004 RMK A01 T00490028  RH  087%=      5-min Rain = 0
KMC5 241257Z 34016KT 05/03 A3004 RMK A01 T00490028  RH  087%=      5-min Rain = 0
KMC5 241258Z 33016KT 05/03 A3004 RMK A01 T00490028  RH  087%=      5-min Rain = 0
KMC5 241259Z 33016KT 05/03 A3004 RMK A01 T00490028  RH  087%=      5-min Rain = 0
KMC5 241300Z 34016KT 05/03 A3004 RMK A01 T00490028  RH  086%=      5-min Rain = 0
KMC5 241301Z 33015KT 05/03 A3004 RMK A01 T00490028  RH  086%=      5-min Rain = 0
KMC5 241302Z 33016KT 05/03 A3004 RMK A01 T00490029  RH  086%=      5-min Rain = 0
KMC5 241303Z 33014KT 05/03 A3004 RMK A01 T00500028  RH  086%=      5-min Rain = 0
KMC5 241304Z 34016KT 05/03 A3004 RMK A01 T00500028  RH  086%=      5-min Rain = 0
KMC5 241305Z 34014KT 05/03 A3004 RMK A01 T00500029  RH  086%=      5-min Rain = 0
KMC5 241306Z 34014KT 05/03 A3004 RMK A01 T00510029  RH  086%=      5-min Rain = 0
KMC5 241307Z 34016KT 05/03 A3004 RMK A01 T00510029  RH  086%=      5-min Rain = 0
KMC5 241308Z 34016KT 05/03 A3004 RMK A01 T00520029  RH  085%=      5-min Rain = 0
KMC5 241309Z 34016KT 05/03 A3004 RMK A01 T00520029  RH  085%=      5-min Rain = 0
KMC5 241310Z 34015KT 05/03 A3004 RMK A01 T00530029  RH  085%=      5-min Rain = 0
KMC5 241311Z 34014KT 05/03 A3004 RMK A01 T00530030  RH  085%=      5-min Rain = 0
KMC5 241312Z 34016KT 05/03 A3004 RMK A01 T00530030  RH  085%=      5-min Rain = 0
KMC5 241313Z 34015KT 05/03 A3004 RMK A01 T00530029  RH  084%=      5-min Rain = 0
KMC5 241314Z 34015KT 05/03 A3004 RMK A01 T00540030  RH  085%=      5-min Rain = 0
KMC5 241315Z 34015KT 05/03 A3004 RMK A01 T00540030  RH  085%=      5-min Rain = 0
KMC5 241316Z 34015KT 05/03 A3004 RMK A01 T00540030  RH  085%=      5-min Rain = 0
KMC5 241317Z 34015KT 05/03 A3004 RMK A01 T00540030  RH  085%=      5-min Rain = 0
KMC5 241318Z 34015KT 06/03 A3004 RMK A01 T00550031  RH  084%=      5-min Rain = 0
KMC5 241319Z 34014KT 06/03 A3004 RMK A01 T00550031  RH  084%=      5-min Rain = 0
KMC5 241320Z 34016KT 06/03 A3004 RMK A01 T00560031  RH  084%=      5-min Rain = 0
KMC5 241321Z 34017KT 06/03 A3004 RMK A01 T00570031  RH  083%=      5-min Rain = 0
KMC5 241322Z 34017KT 06/03 A3004 RMK A01 T00570031  RH  083%=      5-min Rain = 0
KMC5 241323Z 34015KT 06/03 A3004 RMK A01 T00580031  RH  083%=      5-min Rain = 0
KMC5 241324Z 34017KT 06/03 A3004 RMK A01 T00590030  RH  082%=      5-min Rain = 0
KMC5 241325Z 34015KT 06/03 A3004 RMK A01 T00600031  RH  082%=      5-min Rain = 0
KMC5 241326Z 34014KT 06/03 A3005 RMK A01 T00610032  RH  082%=      5-min Rain = 0
KMC5 241327Z 34014KT 06/03 A3005 RMK A01 T00610031  RH  081%=      5-min Rain = 0
KMC5 241328Z 34015KT 06/03 A3005 RMK A01 T00610031  RH  081%=      5-min Rain = 0
KMC5 241329Z 34014KT 06/03 A3005 RMK A01 T00610031  RH  081%=      5-min Rain = 0
KMC5 241330Z 34014KT 06/03 A3005 RMK A01 T00620032  RH  081%=      5-min Rain = 0
KMC5 241331Z 34015KT 06/03 A3005 RMK A01 T00620031  RH  081%=      5-min Rain = 0
KMC5 241332Z 34016KT 06/03 A3005 RMK A01 T00620031  RH  081%=      5-min Rain = 0
KMC5 241333Z 34016KT 06/03 A3005 RMK A01 T00620031  RH  080%=      5-min Rain = 0
KMC5 241334Z 34016KT 06/03 A3005 RMK A01 T00630031  RH  080%=      5-min Rain = 0
KMC5 241335Z 34015KT 06/03 A3005 RMK A01 T00630031  RH  080%=      5-min Rain = 0
KMC5 241336Z 34016KT 06/03 A3005 RMK A01 T00640031  RH  080%=      5-min Rain = 0
KMC5 241337Z 34016KT 06/03 A3005 RMK A01 T00640032  RH  080%=      5-min Rain = 0
KMC5 241338Z 34015KT 07/03 A3005 RMK A01 T00650032  RH  079%=      5-min Rain = 0
KMC5 241339Z 34014KT 07/03 A3005 RMK A01 T00660032  RH  079%=      5-min Rain = 0
KMC5 241340Z 34015KT 07/03 A3005 RMK A01 T00660033  RH  080%=      5-min Rain = 0
KMC5 241341Z 34016KT 07/03 A3005 RMK A01 T00650032  RH  079%=      5-min Rain = 0
KMC5 241342Z 34016KT 07/03 A3005 RMK A01 T00660031  RH  079%=      5-min Rain = 0
KMC5 241343Z 34014KT 07/03 A3005 RMK A01 T00660032  RH  079%=      5-min Rain = 0
KMC5 241344Z 34014KT 07/03 A3005 RMK A01 T00660032  RH  079%=      5-min Rain = 0
KMC5 241345Z 34015KT 07/03 A3006 RMK A01 T00660032  RH  079%=      5-min Rain = 0
KMC5 241346Z 34014KT 07/03 A3006 RMK A01 T00660032  RH  079%=      5-min Rain = 0
KMC5 241347Z 34015KT 07/03 A3006 RMK A01 T00660032  RH  079%=      5-min Rain = 0
KMC5 241348Z 34014KT 07/03 A3006 RMK A01 T00670032  RH  078%=      5-min Rain = 0
KMC5 241349Z 34014KT 07/03 A3006 RMK A01 T00670032  RH  078%=      5-min Rain = 0
KMC5 241350Z 34012KT 07/03 A3006 RMK A01 T00680033  RH  078%=      5-min Rain = 0
KMC5 241351Z 34014KT 07/03 A3006 RMK A01 T00680033  RH  078%=      5-min Rain = 0
KMC5 241352Z 34015KT 07/03 A3006 RMK A01 T00680032  RH  078%=      5-min Rain = 0
KMC5 241353Z 34014KT 07/03 A3006 RMK A01 T00680033  RH  078%=      5-min Rain = 0
KMC5 241354Z 34014KT 07/03 A3006 RMK A01 T00690034  RH  078%=      5-min Rain = 0
KMC5 241355Z 34012KT 07/03 A3006 RMK A01 T00690034  RH  078%=      5-min Rain = 0
KMC5 241356Z 34015KT 07/03 A3006 RMK A01 T00700034  RH  078%=      5-min Rain = 0
KMC5 241357Z 34012KT 07/03 A3006 RMK A01 T00710033  RH  077%=      5-min Rain = 0
KMC5 241358Z 34011KT 07/03 A3006 RMK A01 T00710034  RH  077%=      5-min Rain = 0
KMC5 241359Z 34011KT 07/04 A3006 RMK A01 T00720035  RH  077%=      5-min Rain = 0
KMC5 241400Z 34011KT 07/04 A3006 RMK A01 T00730035  RH  077%=      5-min Rain = 0
KMC5 241401Z 34011KT 07/04 A3006 RMK A01 T00730035  RH  077%=      5-min Rain = 0
KMC5 241402Z 34013KT 07/03 A3007 RMK A01 T00730034  RH  076%=      5-min Rain = 0
KMC5 241403Z 34011KT 07/03 A3007 RMK A01 T00730034  RH  076%=      5-min Rain = 0
KMC5 241404Z 34011KT 07/04 A3007 RMK A01 T00740035  RH  076%=      5-min Rain = 0
KMC5 241405Z 34012KT 07/04 A3007 RMK A01 T00740035  RH  076%=      5-min Rain = 0
KMC5 241406Z 34012KT 07/03 A3007 RMK A01 T00740034  RH  076%=      5-min Rain = 0
KMC5 241407Z 34011KT 07/04 A3007 RMK A01 T00740035  RH  076%=      5-min Rain = 0
KMC5 241408Z 34012KT 08/04 A3007 RMK A01 T00750035  RH  076%=      5-min Rain = 0
KMC5 241409Z 34014KT 08/03 A3007 RMK A01 T00750034  RH  075%=      5-min Rain = 0
KMC5 241410Z 34014KT 08/03 A3007 RMK A01 T00750033  RH  075%=      5-min Rain = 0
KMC5 241411Z 34013KT 08/03 A3007 RMK A01 T00750034  RH  075%=      5-min Rain = 0
KMC5 241412Z 34014KT 08/04 A3007 RMK A01 T00770035  RH  075%=      5-min Rain = 0
KMC5 241413Z 35014KT 08/04 A3007 RMK A01 T00770035  RH  075%=      5-min Rain = 0
KMC5 241414Z 34011KT 08/04 A3007 RMK A01 T00780036  RH  075%=      5-min Rain = 0
KMC5 241415Z 34012KT 08/04 A3007 RMK A01 T00790037  RH  075%=      5-min Rain = 0
KMC5 241416Z 35013KT 08/04 A3007 RMK A01 T00810037  RH  074%=      5-min Rain = 0
KMC5 241417Z 34012KT 08/04 A3007 RMK A01 T00820037  RH  073%=      5-min Rain = 0
KMC5 241418Z 34013KT 08/04 A3007 RMK A01 T00820036  RH  073%=      5-min Rain = 0
KMC5 241419Z 35013KT 08/04 A3007 RMK A01 T00820036  RH  073%=      5-min Rain = 0
KMC5 241420Z 35014KT 08/04 A3007 RMK A01 T00830036  RH  072%=      5-min Rain = 0
KMC5 241421Z 34014KT 08/04 A3007 RMK A01 T00840037  RH  072%=      5-min Rain = 0
KMC5 241422Z 34015KT 08/04 A3007 RMK A01 T00840037  RH  072%=      5-min Rain = 0
KMC5 241423Z 35014KT 09/04 A3008 RMK A01 T00850037  RH  072%=      5-min Rain = 0
KMC5 241424Z 35013KT 09/04 A3008 RMK A01 T00870039  RH  072%=      5-min Rain = 0
KMC5 241425Z 34013KT 09/04 A3008 RMK A01 T00880039  RH  072%=      5-min Rain = 0
KMC5 241426Z 35014KT 09/04 A3008 RMK A01 T00880038  RH  071%=      5-min Rain = 0
KMC5 241427Z 35013KT 09/04 A3008 RMK A01 T00890040  RH  071%=      5-min Rain = 0
KMC5 241428Z 35014KT 09/04 A3008 RMK A01 T00890038  RH  070%=      5-min Rain = 0
KMC5 241429Z 36012KT 09/04 A3008 RMK A01 T00890038  RH  071%=      5-min Rain = 0
KMC5 241430Z 35012KT 09/04 A3008 RMK A01 T00900039  RH  070%=      5-min Rain = 0
KMC5 241431Z 36012KT 09/04 A3008 RMK A01 T00910038  RH  069%=      5-min Rain = 0
KMC5 241432Z 36014KT 09/04 A3008 RMK A01 T00910036  RH  068%=      5-min Rain = 0
KMC5 241433Z 36011KT 09/04 A3008 RMK A01 T00910037  RH  069%=      5-min Rain = 0
KMC5 241434Z 35013KT 09/04 A3008 RMK A01 T00910036  RH  068%=      5-min Rain = 0
KMC5 241435Z 00012KT 09/04 A3009 RMK A01 T00910037  RH  069%=      5-min Rain = 0
KMC5 241436Z 35011KT 09/04 A3009 RMK A01 T00920037  RH  069%=      5-min Rain = 0
KMC5 241437Z 35012KT 09/04 A3009 RMK A01 T00920038  RH  069%=      5-min Rain = 0
KMC5 241438Z 35012KT 09/04 A3009 RMK A01 T00920037  RH  068%=      5-min Rain = 0
KMC5 241439Z 36013KT 09/04 A3009 RMK A01 T00940039  RH  068%=      5-min Rain = 0
KMC5 241440Z 35013KT 10/04 A3009 RMK A01 T00950037  RH  067%=      5-min Rain = 0
KMC5 241441Z 35014KT 09/04 A3009 RMK A01 T00940036  RH  067%=      5-min Rain = 0
KMC5 241442Z 00012KT 09/04 A3009 RMK A01 T00940038  RH  068%=      5-min Rain = 0
KMC5 241443Z 36012KT 09/04 A3009 RMK A01 T00940035  RH  067%=      5-min Rain = 0
KMC5 241444Z 35011KT 09/04 A3009 RMK A01 T00930038  RH  068%=      5-min Rain = 0
KMC5 241445Z 35011KT 09/04 A3009 RMK A01 T00930038  RH  069%=      5-min Rain = 0
KMC5 241446Z 00013KT 09/04 A3009 RMK A01 T00940037  RH  068%=      5-min Rain = 0
KMC5 241447Z 35014KT 10/04 A3009 RMK A01 T00950036  RH  066%=      5-min Rain = 0
KMC5 241448Z 35013KT 09/04 A3008 RMK A01 T00940036  RH  067%=      5-min Rain = 0
KMC5 241449Z 35013KT 10/04 A3008 RMK A01 T00950037  RH  067%=      5-min Rain = 0
KMC5 241450Z 35013KT 10/04 A3008 RMK A01 T00950037  RH  067%=      5-min Rain = 0
KMC5 241451Z 36013KT 10/04 A3008 RMK A01 T00960038  RH  067%=      5-min Rain = 0
KMC5 241452Z 36012KT 10/04 A3008 RMK A01 T00980037  RH  066%=      5-min Rain = 0
KMC5 241453Z 36014KT 10/04 A3008 RMK A01 T00990038  RH  066%=      5-min Rain = 0
KMC5 241454Z 35015KT 10/04 A3008 RMK A01 T00990037  RH  065%=      5-min Rain = 0
KMC5 241455Z 36014KT 10/04 A3008 RMK A01 T00990037  RH  065%=      5-min Rain = 0
KMC5 241456Z 36014KT 10/04 A3008 RMK A01 T00990036  RH  065%=      5-min Rain = 0
KMC5 241457Z 36013KT 10/04 A3008 RMK A01 T01000038  RH  065%=      5-min Rain = 0
KMC5 241458Z 36015KT 10/04 A3008 RMK A01 T01020035  RH  063%=      5-min Rain = 0
KMC5 241459Z 36013KT 10/04 A3008 RMK A01 T01010037  RH  064%=      5-min Rain = 0
KMC5 241500Z 35015KT 10/04 A3008 RMK A01 T01020039  RH  065%=      5-min Rain = 0
KMC5 241501Z 35016KT 10/04 A3008 RMK A01 T01020037  RH  064%=      5-min Rain = 0
KMC5 241502Z 35013KT 10/04 A3008 RMK A01 T01010035  RH  064%=      5-min Rain = 0
KMC5 241503Z 35016KT 10/04 A3008 RMK A01 T01020037  RH  064%=      5-min Rain = 0
KMC5 241504Z 35015KT 10/04 A3008 RMK A01 T01010036  RH  064%=      5-min Rain = 0
KMC5 241505Z 35015KT 10/04 A3008 RMK A01 T01010036  RH  064%=      5-min Rain = 0
KMC5 241506Z 35014KT 10/04 A3008 RMK A01 T01010038  RH  065%=      5-min Rain = 0
KMC5 241507Z 35015KT 10/04 A3008 RMK A01 T01020037  RH  064%=      5-min Rain = 0
KMC5 241508Z 36014KT 10/04 A3008 RMK A01 T01020036  RH  064%=      5-min Rain = 0
KMC5 241509Z 34014KT 10/04 A3008 RMK A01 T01030038  RH  064%=      5-min Rain = 0
KMC5 241510Z 35016KT 10/04 A3008 RMK A01 T01040038  RH  064%=      5-min Rain = 0
KMC5 241511Z 35015KT 10/04 A3008 RMK A01 T01030037  RH  064%=      5-min Rain = 0
KMC5 241512Z 35013KT 10/04 A3008 RMK A01 T01020037  RH  064%=      5-min Rain = 0
KMC5 241513Z 35016KT 10/04 A3008 RMK A01 T01020037  RH  064%=      5-min Rain = 0
KMC5 241514Z 35014KT 10/04 A3009 RMK A01 T01030036  RH  063%=      5-min Rain = 0
KMC5 241515Z 35013KT 10/04 A3009 RMK A01 T01040039  RH  064%=      5-min Rain = 0
KMC5 241516Z 34015KT 11/04 A3009 RMK A01 T01060038  RH  063%=      5-min Rain = 0
KMC5 241517Z 34014KT 11/04 A3009 RMK A01 T01060037  RH  062%=      5-min Rain = 0
KMC5 241518Z 35014KT 11/04 A3009 RMK A01 T01060038  RH  063%=      5-min Rain = 0
KMC5 241519Z 34013KT 11/04 A3009 RMK A01 T01060038  RH  063%=      5-min Rain = 0
KMC5 241520Z 34014KT 11/04 A3009 RMK A01 T01060038  RH  063%=      5-min Rain = 0
KMC5 241521Z 35014KT 11/04 A3009 RMK A01 T01050038  RH  063%=      5-min Rain = 0
KMC5 241522Z 34015KT 11/04 A3009 RMK A01 T01060038  RH  063%=      5-min Rain = 0
KMC5 241523Z 35014KT 11/04 A3009 RMK A01 T01060039  RH  063%=      5-min Rain = 0
KMC5 241524Z 34015KT 11/04 A3009 RMK A01 T01060039  RH  063%=      5-min Rain = 0
KMC5 241525Z 34012KT 11/04 A3009 RMK A01 T01060040  RH  064%=      5-min Rain = 0
KMC5 241526Z 35013KT 11/04 A3009 RMK A01 T01080043  RH  064%=      5-min Rain = 0
KMC5 241527Z 34015KT 11/04 A3009 RMK A01 T01100041  RH  062%=      5-min Rain = 0
KMC5 241528Z 35014KT 11/04 A3009 RMK A01 T01080039  RH  063%=      5-min Rain = 0
KMC5 241529Z 34014KT 11/04 A3009 RMK A01 T01080040  RH  063%=      5-min Rain = 0
KMC5 241530Z 34014KT 11/04 A3009 RMK A01 T01090042  RH  063%=      5-min Rain = 0
KMC5 241531Z 34013KT 11/04 A3009 RMK A01 T01100040  RH  062%=      5-min Rain = 0
KMC5 241532Z 35016KT 11/04 A3009 RMK A01 T01100040  RH  062%=      5-min Rain = 0
KMC5 241533Z 35014KT 11/04 A3009 RMK A01 T01100039  RH  061%=      5-min Rain = 0
KMC5 241534Z 34013KT 11/04 A3009 RMK A01 T01100041  RH  062%=      5-min Rain = 0
KMC5 241535Z 34016KT 11/04 A3009 RMK A01 T01110039  RH  061%=      5-min Rain = 0
KMC5 241536Z 35014KT 11/04 A3009 RMK A01 T01100039  RH  062%=      5-min Rain = 0
KMC5 241537Z 35012KT 11/04 A3009 RMK A01 T01100040  RH  062%=      5-min Rain = 0
KMC5 241538Z 35014KT 11/04 A3009 RMK A01 T01130041  RH  061%=      5-min Rain = 0
KMC5 241539Z 35014KT 12/04 A3009 RMK A01 T01160041  RH  060%=      5-min Rain = 0
KMC5 241540Z 35011KT 12/04 A3009 RMK A01 T01170039  RH  059%=      5-min Rain = 0
KMC5 241541Z 35011KT 12/04 A3009 RMK A01 T01170044  RH  061%=      5-min Rain = 0
KMC5 241542Z 36013KT 12/04 A3009 RMK A01 T01210042  RH  059%=      5-min Rain = 0
KMC5 241543Z 35011KT 12/04 A3009 RMK A01 T01210039  RH  057%=      5-min Rain = 0
KMC5 241544Z 35010KT 12/04 A3009 RMK A01 T01190042  RH  059%=      5-min Rain = 0
KMC5 241545Z 35012KT 12/04 A3009 RMK A01 T01210040  RH  058%=      5-min Rain = 0
KMC5 241546Z 36013KT 12/04 A3009 RMK A01 T01200038  RH  057%=      5-min Rain = 0
KMC5 241547Z 36013KT 12/04 A3009 RMK A01 T01180035  RH  056%=      5-min Rain = 0
KMC5 241548Z 34011KT 12/04 A3009 RMK A01 T01180036  RH  057%=      5-min Rain = 0
KMC5 241549Z 34011KT 12/04 A3009 RMK A01 T01190041  RH  059%=      5-min Rain = 0
KMC5 241550Z 35009KT 12/04 A3009 RMK A01 T01200043  RH  059%=      5-min Rain = 0
KMC5 241551Z 01011KT 13/04 A3009 RMK A01 T01250043  RH  057%=      5-min Rain = 0
KMC5 241552Z 36010KT 13/04 A3009 RMK A01 T01260038  RH  055%=      5-min Rain = 0
KMC5 241553Z 00010KT 13/04 A3009 RMK A01 T01250039  RH  056%=      5-min Rain = 0
KMC5 241554Z 35009KT 12/04 A301 RMK A01 T01240040  RH  057%=      5-min Rain = 0
KMC5 241555Z 35009KT 12/04 A301 RMK A01 T01240041  RH  057%=      5-min Rain = 0
KMC5 241556Z 35010KT 12/04 A301 RMK A01 T01240041  RH  057%=      5-min Rain = 0
KMC5 241557Z 35009KT 12/04 A3009 RMK A01 T01220041  RH  057%=      5-min Rain = 0
KMC5 241558Z 34009KT 12/04 A3009 RMK A01 T01230039  RH  056%=      5-min Rain = 0
KMC5 241559Z 34009KT 12/04 A301 RMK A01 T01220039  RH  057%=      5-min Rain = 0
KMC5 241600Z 00007KT 12/04 A301 RMK A01 T01210039  RH  057%=      5-min Rain = 0
KMC5 241601Z 01008KT 12/04 A301 RMK A01 T01220037  RH  056%=      5-min Rain = 0
KMC5 241602Z 36009KT 13/03 A301 RMK A01 T01250032  RH  053%=      5-min Rain = 0
KMC5 241603Z 01009KT 13/04 A301 RMK A01 T01270037  RH  054%=      5-min Rain = 0
KMC5 241604Z 00008KT 13/04 A301 RMK A01 T01270038  RH  055%=      5-min Rain = 0
KMC5 241605Z 00010KT 13/04 A301 RMK A01 T01270039  RH  055%=      5-min Rain = 0
KMC5 241606Z 01008KT 13/03 A3009 RMK A01 T01270034  RH  053%=      5-min Rain = 0
KMC5 241607Z 00009KT 13/04 A3009 RMK A01 T01280038  RH  055%=      5-min Rain = 0
KMC5 241608Z 34012KT 13/04 A3009 RMK A01 T01300037  RH  053%=      5-min Rain = 0
KMC5 241609Z 00011KT 13/03 A3009 RMK A01 T01290034  RH  052%=      5-min Rain = 0
KMC5 241610Z 01012KT 13/03 A3009 RMK A01 T01290032  RH  052%=      5-min Rain = 0
KMC5 241611Z 01011KT 13/03 A3009 RMK A01 T01300031  RH  051%=      5-min Rain = 0
KMC5 241612Z 36013KT 13/03 A3009 RMK A01 T01320032  RH  051%=      5-min Rain = 0
KMC5 241613Z 00011KT 14/03 A301 RMK A01 T01350034  RH  051%=      5-min Rain = 0
KMC5 241614Z 01012KT 14/04 A301 RMK A01 T01370035  RH  050%=      5-min Rain = 0
KMC5 241615Z 02013KT 14/03 A301 RMK A01 T01380032  RH  049%=      5-min Rain = 0
KMC5 241616Z 01010KT 14/03 A301 RMK A01 T01380032  RH  049%=      5-min Rain = 0
KMC5 241617Z 00009KT 14/03 A301 RMK A01 T01390034  RH  049%=      5-min Rain = 0
KMC5 241618Z 36012KT 14/04 A301 RMK A01 T01390035  RH  049%=      5-min Rain = 0
KMC5 241619Z 00011KT 14/04 A301 RMK A01 T01360035  RH  050%=      5-min Rain = 0
KMC5 241620Z 01011KT 14/03 A301 RMK A01 T01360032  RH  049%=      5-min Rain = 0
KMC5 241621Z 01011KT 14/03 A301 RMK A01 T01360028  RH  048%=      5-min Rain = 0
KMC5 241622Z 02008KT 14/03 A301 RMK A01 T01350030  RH  049%=      5-min Rain = 0
KMC5 241623Z 01009KT 14/04 A301 RMK A01 T01370036  RH  050%=      5-min Rain = 0
KMC5 241624Z 00011KT 14/03 A301 RMK A01 T01390033  RH  049%=      5-min Rain = 0
KMC5 241625Z 00009KT 14/03 A301 RMK A01 T01370033  RH  049%=      5-min Rain = 0
KMC5 241626Z 36008KT 14/03 A301 RMK A01 T01350034  RH  050%=      5-min Rain = 0
KMC5 241627Z 00012KT 14/04 A301 RMK A01 T01350035  RH  051%=      5-min Rain = 0
KMC5 241628Z 00009KT 14/04 A301 RMK A01 T01350035  RH  051%=      5-min Rain = 0
KMC5 241629Z 00009KT 13/03 A301 RMK A01 T01320031  RH  050%=      5-min Rain = 0
KMC5 241630Z 01012KT 13/03 A301 RMK A01 T01300032  RH  051%=      5-min Rain = 0
KMC5 241631Z 02011KT 13/03 A301 RMK A01 T01290030  RH  051%=      5-min Rain = 0
KMC5 241632Z 02008KT 13/03 A301 RMK A01 T01280028  RH  051%=      5-min Rain = 0
KMC5 241633Z 02008KT 13/03 A301 RMK A01 T01270031  RH  052%=      5-min Rain = 0
KMC5 241634Z 03009KT 13/03 A301 RMK A01 T01280029  RH  051%=      5-min Rain = 0
KMC5 241635Z 03009KT 13/03 A301 RMK A01 T01290029  RH  051%=      5-min Rain = 0
KMC5 241636Z 04009KT 13/03 A301 RMK A01 T01300031  RH  051%=      5-min Rain = 0
KMC5 241637Z 02008KT 13/03 A301 RMK A01 T01320033  RH  051%=      5-min Rain = 0
KMC5 241638Z 01007KT 13/03 A301 RMK A01 T01340029  RH  049%=      5-min Rain = 0
KMC5 241639Z 03007KT 14/03 A301 RMK A01 T01370034  RH  050%=      5-min Rain = 0
KMC5 241640Z 03008KT 14/03 A3011 RMK A01 T01400032  RH  048%=      5-min Rain = 0
KMC5 241641Z 03008KT 14/03 A3011 RMK A01 T01400032  RH  048%=      5-min Rain = 0
KMC5 241642Z 03007KT 14/03 A3011 RMK A01 T01400034  RH  049%=      5-min Rain = 0
KMC5 241643Z 03006KT 14/03 A3011 RMK A01 T01410033  RH  048%=      5-min Rain = 0
KMC5 241644Z 05007KT 14/04 A3011 RMK A01 T01410035  RH  049%=      5-min Rain = 0
KMC5 241645Z 05006KT 14/03 A3011 RMK A01 T01400033  RH  048%=      5-min Rain = 0
KMC5 241646Z 04005KT 14/04 A3011 RMK A01 T01390035  RH  049%=      5-min Rain = 0
KMC5 241647Z 03006KT 14/03 A301 RMK A01 T01410033  RH  048%=      5-min Rain = 0
KMC5 241648Z 03008G14KT 14/03 A301 RMK A01 T01420034  RH  048%=      5-min Rain = 0
KMC5 241649Z 03009KT 14/03 A301 RMK A01 T01440034  RH  048%=      5-min Rain = 0
KMC5 241650Z 02010KT 15/03 A301 RMK A01 T01450031  RH  046%=      5-min Rain = 0
KMC5 241651Z 02010KT 14/03 A301 RMK A01 T01420030  RH  047%=      5-min Rain = 0
KMC5 241652Z 03010KT 14/03 A301 RMK A01 T01420034  RH  048%=      5-min Rain = 0
KMC5 241653Z 03010KT 14/03 A301 RMK A01 T01420032  RH  047%=      5-min Rain = 0
KMC5 241654Z 04009KT 14/03 A301 RMK A01 T01410032  RH  048%=      5-min Rain = 0
KMC5 241655Z 05009KT 14/03 A301 RMK A01 T01400031  RH  048%=      5-min Rain = 0
KMC5 241656Z 06008KT 14/03 A301 RMK A01 T01400032  RH  048%=      5-min Rain = 0
KMC5 241657Z 05008KT 14/03 A301 RMK A01 T01400031  RH  048%=      5-min Rain = 0
KMC5 241658Z 05008KT 14/03 A301 RMK A01 T01400034  RH  049%=      5-min Rain = 0
KMC5 241659Z 04007KT 14/03 A301 RMK A01 T01410033  RH  048%=      5-min Rain = 0
KMC5 241700Z 06007KT 14/04 A301 RMK A01 T01440038  RH  049%=      5-min Rain = 0
KMC5 241701Z 06008KT 15/04 A301 RMK A01 T01460037  RH  048%=      5-min Rain = 0
KMC5 241702Z 06007KT 14/04 A301 RMK A01 T01440035  RH  048%=      5-min Rain = 0
KMC5 241703Z 06008KT 14/03 A301 RMK A01 T01420033  RH  048%=      5-min Rain = 0
KMC5 241704Z 06009KT 14/04 A301 RMK A01 T01410035  RH  049%=      5-min Rain = 0
KMC5 241705Z 07009KT 14/04 A301 RMK A01 T01420036  RH  049%=      5-min Rain = 0
KMC5 241706Z 06009KT 14/04 A301 RMK A01 T01430037  RH  049%=      5-min Rain = 0
KMC5 241707Z 06010KT 15/03 A301 RMK A01 T01450033  RH  047%=      5-min Rain = 0
KMC5 241708Z 07009KT 15/04 A301 RMK A01 T01470035  RH  047%=      5-min Rain = 0
KMC5 241709Z 06008KT 15/04 A301 RMK A01 T01480036  RH  047%=      5-min Rain = 0
KMC5 241710Z 08009KT 15/04 A301 RMK A01 T01510037  RH  046%=      5-min Rain = 0
KMC5 241711Z 07009KT 15/04 A301 RMK A01 T01520036  RH  046%=      5-min Rain = 0
KMC5 241712Z 07009KT 15/03 A301 RMK A01 T01510034  RH  045%=      5-min Rain = 0
KMC5 241713Z 07006KT 15/03 A301 RMK A01 T01480034  RH  046%=      5-min Rain = 0
KMC5 241714Z 07006KT 15/04 A301 RMK A01 T01480035  RH  047%=      5-min Rain = 0
KMC5 241715Z 05008KT 15/04 A301 RMK A01 T01470035  RH  047%=      5-min Rain = 0
KMC5 241716Z 06007KT 15/03 A301 RMK A01 T01450033  RH  047%=      5-min Rain = 0
KMC5 241717Z 08007G12KT 14/04 A301 RMK A01 T01430036  RH  048%=      5-min Rain = 0
KMC5 241718Z 05009KT 15/04 A301 RMK A01 T01450035  RH  047%=      5-min Rain = 0
KMC5 241719Z 07008KT 15/03 A301 RMK A01 T01450032  RH  046%=      5-min Rain = 0
KMC5 241720Z 07007KT 15/03 A301 RMK A01 T01450033  RH  047%=      5-min Rain = 0
KMC5 241721Z 08006KT 14/03 A301 RMK A01 T01440032  RH  047%=      5-min Rain = 0
KMC5 241722Z 06007KT 14/04 A301 RMK A01 T01440037  RH  048%=      5-min Rain = 0
KMC5 241723Z 06007KT 15/04 A301 RMK A01 T01480041  RH  049%=      5-min Rain = 0
KMC5 241724Z 05009KT 15/04 A3011 RMK A01 T01500040  RH  048%=      5-min Rain = 0
KMC5 241725Z 06005KT 15/04 A3011 RMK A01 T01490035  RH  047%=      5-min Rain = 0
KMC5 241726Z 06006KT 15/04 A3011 RMK A01 T01470038  RH  048%=      5-min Rain = 0
KMC5 241727Z 06009KT 15/04 A3011 RMK A01 T01490039  RH  048%=      5-min Rain = 0
KMC5 241728Z 06008KT 15/04 A301 RMK A01 T01510036  RH  046%=      5-min Rain = 0
KMC5 241729Z 05007KT 15/04 A301 RMK A01 T01510038  RH  047%=      5-min Rain = 0
KMC5 241730Z 06008KT 15/04 A301 RMK A01 T01510035  RH  046%=      5-min Rain = 0
KMC5 241731Z 07007KT 15/04 A301 RMK A01 T01490035  RH  046%=      5-min Rain = 0
KMC5 241732Z 06010KT 15/04 A301 RMK A01 T01480035  RH  047%=      5-min Rain = 0
KMC5 241733Z 06010KT 15/04 A301 RMK A01 T01510035  RH  046%=      5-min Rain = 0
KMC5 241734Z 07007KT 15/04 A301 RMK A01 T01520036  RH  046%=      5-min Rain = 0
KMC5 241735Z 06006KT 16/04 A301 RMK A01 T01560038  RH  045%=      5-min Rain = 0
KMC5 241736Z 04009KT 16/04 A301 RMK A01 T01560038  RH  045%=      5-min Rain = 0
KMC5 241737Z 03008KT 16/04 A301 RMK A01 T01560036  RH  045%=      5-min Rain = 0
KMC5 241738Z 03006KT 16/03 A301 RMK A01 T01550032  RH  044%=      5-min Rain = 0
KMC5 241739Z 03005KT 15/03 A301 RMK A01 T01520032  RH  044%=      5-min Rain = 0
KMC5 241740Z 03005KT 15/03 A301 RMK A01 T01510033  RH  045%=      5-min Rain = 0
KMC5 241741Z 05010KT 15/04 A3011 RMK A01 T01520037  RH  046%=      5-min Rain = 0
KMC5 241742Z 05011KT 16/04 A301 RMK A01 T01560035  RH  044%=      5-min Rain = 0
KMC5 241743Z 03010KT 16/04 A3011 RMK A01 T01560035  RH  044%=      5-min Rain = 0
KMC5 241744Z 02007KT 16/03 A301 RMK A01 T01550034  RH  044%=      5-min Rain = 0
KMC5 241745Z 03008KT 15/04 A301 RMK A01 T01540035  RH  045%=      5-min Rain = 0
KMC5 241746Z 03010KT 16/04 A301 RMK A01 T01550036  RH  045%=      5-min Rain = 0
KMC5 241747Z 03009KT 16/04 A301 RMK A01 T01550036  RH  045%=      5-min Rain = 0
KMC5 241748Z 03007KT 16/04 A301 RMK A01 T01550037  RH  045%=      5-min Rain = 0
KMC5 241749Z 04007KT 16/04 A301 RMK A01 T01550036  RH  045%=      5-min Rain = 0
KMC5 241750Z 03006KT 15/04 A301 RMK A01 T01530036  RH  046%=      5-min Rain = 0
KMC5 241751Z 01005KT 15/04 A301 RMK A01 T01530037  RH  046%=      5-min Rain = 0
KMC5 241752Z 01007KT 16/04 A3011 RMK A01 T01550039  RH  046%=      5-min Rain = 0
KMC5 241753Z 00009KT 16/04 A3011 RMK A01 T01600041  RH  045%=      5-min Rain = 0
KMC5 241754Z 00010KT 16/04 A301 RMK A01 T01620040  RH  044%=      5-min Rain = 0
KMC5 241755Z 36009KT 16/04 A301 RMK A01 T01620038  RH  044%=      5-min Rain = 0
KMC5 241756Z 35008KT 16/04 A301 RMK A01 T01600036  RH  044%=      5-min Rain = 0
KMC5 241757Z 35006KT 16/04 A301 RMK A01 T01580039  RH  045%=      5-min Rain = 0
KMC5 241758Z 01006KT 16/04 A301 RMK A01 T01580037  RH  044%=      5-min Rain = 0
KMC5 241759Z 05008KT 16/04 A301 RMK A01 T01580035  RH  044%=      5-min Rain = 0
KMC5 241800Z 04007KT 16/03 A301 RMK A01 T01590034  RH  043%=      5-min Rain = 0
KMC5 241801Z 04009KT 16/03 A301 RMK A01 T01590032  RH  043%=      5-min Rain = 0
KMC5 241802Z 05008KT 16/03 A301 RMK A01 T01580029  RH  042%=      5-min Rain = 0
KMC5 241803Z 03008KT 16/03 A301 RMK A01 T01560031  RH  043%=      5-min Rain = 0
KMC5 241804Z 03008KT 16/04 A301 RMK A01 T01560036  RH  045%=      5-min Rain = 0
KMC5 241805Z 04005KT 16/03 A301 RMK A01 T01560033  RH  044%=      5-min Rain = 0
KMC5 241806Z 04008KT 16/04 A301 RMK A01 T01550036  RH  045%=      5-min Rain = 0
KMC5 241807Z 04007KT 16/03 A301 RMK A01 T01560033  RH  044%=      5-min Rain = 0
KMC5 241808Z 03008KT 16/04 A301 RMK A01 T01550036  RH  045%=      5-min Rain = 0
KMC5 241809Z 03009KT 16/04 A301 RMK A01 T01570039  RH  045%=      5-min Rain = 0
KMC5 241810Z 03005KT 16/03 A301 RMK A01 T01570033  RH  043%=      5-min Rain = 0
KMC5 241811Z 03007KT 16/04 A301 RMK A01 T01550038  RH  045%=      5-min Rain = 0
KMC5 241812Z 02006KT 15/04 A301 RMK A01 T01540036  RH  045%=      5-min Rain = 0
KMC5 241813Z 03005KT 15/03 A301 RMK A01 T01520034  RH  045%=      5-min Rain = 0
KMC5 241814Z 02008KT 15/04 A301 RMK A01 T01540042  RH  047%=      5-min Rain = 0
KMC5 241815Z 01009KT 16/04 A301 RMK A01 T01590039  RH  045%=      5-min Rain = 0
KMC5 241816Z 01006KT 16/04 A301 RMK A01 T01580036  RH  044%=      5-min Rain = 0
KMC5 241817Z 01006KT 16/04 A301 RMK A01 T01570038  RH  045%=      5-min Rain = 0
KMC5 241818Z 36006KT 16/04 A301 RMK A01 T01570039  RH  045%=      5-min Rain = 0
KMC5 241819Z 01007KT 16/04 A301 RMK A01 T01570039  RH  045%=      5-min Rain = 0
KMC5 241820Z 02007KT 16/04 A301 RMK A01 T01560037  RH  045%=      5-min Rain = 0
KMC5 241821Z 04009KT 16/04 A301 RMK A01 T01570038  RH  045%=      5-min Rain = 0
KMC5 241822Z 04007KT 16/04 A301 RMK A01 T01580040  RH  045%=      5-min Rain = 0
KMC5 241823Z 03009KT 16/04 A301 RMK A01 T01590037  RH  044%=      5-min Rain = 0
KMC5 241824Z 04009KT 16/04 A301 RMK A01 T01590036  RH  044%=      5-min Rain = 0
KMC5 241825Z 03008KT 16/04 A301 RMK A01 T01580037  RH  044%=      5-min Rain = 0
KMC5 241826Z 02006KT 16/04 A301 RMK A01 T01590038  RH  044%=      5-min Rain = 0
KMC5 241827Z 03007KT 16/04 A3009 RMK A01 T01600039  RH  044%=      5-min Rain = 0
KMC5 241828Z 04007KT 16/04 A3009 RMK A01 T01610035  RH  043%=      5-min Rain = 0
KMC5 241829Z 03006KT 16/04 A3009 RMK A01 T01600035  RH  043%=      5-min Rain = 0
KMC5 241830Z 03006KT 16/04 A301 RMK A01 T01600035  RH  043%=      5-min Rain = 0
KMC5 241831Z 05009KT 16/03 A301 RMK A01 T01610032  RH  042%=      5-min Rain = 0
KMC5 241832Z 06007KT 16/03 A301 RMK A01 T01610028  RH  041%=      5-min Rain = 0
KMC5 241833Z 05006KT 16/03 A301 RMK A01 T01580028  RH  042%=      5-min Rain = 0
KMC5 241834Z 06005KT 16/03 A301 RMK A01 T01560031  RH  043%=      5-min Rain = 0
KMC5 241835Z 05004KT 16/03 A301 RMK A01 T01570034  RH  044%=      5-min Rain = 0
KMC5 241836Z 04006KT 16/04 A301 RMK A01 T01590038  RH  045%=      5-min Rain = 0
KMC5 241837Z 03009KT 16/04 A301 RMK A01 T01600038  RH  044%=      5-min Rain = 0
KMC5 241838Z 04006KT 16/04 A301 RMK A01 T01610037  RH  044%=      5-min Rain = 0
KMC5 241839Z 04007KT 16/04 A301 RMK A01 T01590035  RH  044%=      5-min Rain = 0
KMC5 241840Z 04010KT 16/04 A301 RMK A01 T01580035  RH  044%=      5-min Rain = 0
KMC5 241841Z 06007KT 16/03 A301 RMK A01 T01560034  RH  044%=      5-min Rain = 0
KMC5 241842Z 05006KT 16/04 A301 RMK A01 T01570038  RH  045%=      5-min Rain = 0
KMC5 241843Z 04007KT 16/03 A301 RMK A01 T01590034  RH  043%=      5-min Rain = 0
KMC5 241844Z 02005KT 16/03 A301 RMK A01 T01590034  RH  043%=      5-min Rain = 0
KMC5 241845Z 05007KT 16/04 A301 RMK A01 T01610036  RH  043%=      5-min Rain = 0
KMC5 241846Z 06009KT 16/04 A301 RMK A01 T01620036  RH  043%=      5-min Rain = 0
KMC5 241847Z 06007KT 16/04 A301 RMK A01 T01620037  RH  043%=      5-min Rain = 0
KMC5 241848Z 06005KT 16/04 A301 RMK A01 T01610035  RH  043%=      5-min Rain = 0
KMC5 241849Z 06007KT 16/04 A301 RMK A01 T01590035  RH  043%=      5-min Rain = 0
KMC5 241850Z 07007KT 16/04 A301 RMK A01 T01580035  RH  044%=      5-min Rain = 0
KMC5 241851Z 08008KT 16/04 A301 RMK A01 T01590035  RH  044%=      5-min Rain = 0
KMC5 241852Z 08005KT 16/03 A301 RMK A01 T01600033  RH  043%=      5-min Rain = 0
KMC5 241853Z 08009KT 16/04 A301 RMK A01 T01640037  RH  043%=      5-min Rain = 0
KMC5 241854Z 07010KT 17/03 A301 RMK A01 T01690034  RH  040%=      5-min Rain = 0
KMC5 241855Z 07009KT 17/03 A301 RMK A01 T01660030  RH  040%=      5-min Rain = 0
KMC5 241856Z 06007KT 16/03 A301 RMK A01 T01630032  RH  042%=      5-min Rain = 0
KMC5 241857Z 07008KT 16/03 A3009 RMK A01 T01620032  RH  042%=      5-min Rain = 0
KMC5 241858Z 07005KT 16/03 A3009 RMK A01 T01600028  RH  041%=      5-min Rain = 0
KMC5 241859Z 08007KT 16/03 A3009 RMK A01 T01570032  RH  043%=      5-min Rain = 0
KMC5 241900Z 07008KT 16/03 A3009 RMK A01 T01590032  RH  043%=      5-min Rain = 0
KMC5 241901Z 05006KT 16/03 A3009 RMK A01 T01600030  RH  042%=      5-min Rain = 0
KMC5 241902Z 08006KT 16/03 A3009 RMK A01 T01590031  RH  042%=      5-min Rain = 0
KMC5 241903Z 08010KT 16/03 A3009 RMK A01 T01590034  RH  043%=      5-min Rain = 0
KMC5 241904Z 08009KT 16/03 A3009 RMK A01 T01590034  RH  043%=      5-min Rain = 0
KMC5 241905Z 06007KT 16/03 A3009 RMK A01 T01600034  RH  043%=      5-min Rain = 0
KMC5 241906Z 07004KT 16/03 A3009 RMK A01 T01580030  RH  042%=      5-min Rain = 0
KMC5 241907Z 07006KT 16/03 A3009 RMK A01 T01570032  RH  043%=      5-min Rain = 0
KMC5 241908Z 10007KT 16/03 A3009 RMK A01 T01590034  RH  043%=      5-min Rain = 0
KMC5 241909Z 09006KT 16/03 A3009 RMK A01 T01590033  RH  043%=      5-min Rain = 0
KMC5 241910Z 09008KT 16/04 A3009 RMK A01 T01600037  RH  044%=      5-min Rain = 0
KMC5 241911Z 07008KT 17/04 A3009 RMK A01 T01650037  RH  042%=      5-min Rain = 0
KMC5 241912Z 08008KT 17/04 A3009 RMK A01 T01670038  RH  042%=      5-min Rain = 0
KMC5 241913Z 05007KT 17/03 A3009 RMK A01 T01680034  RH  041%=      5-min Rain = 0
KMC5 241914Z 08004KT 16/03 A3009 RMK A01 T01640033  RH  042%=      5-min Rain = 0
KMC5 241915Z 08006KT 16/03 A3009 RMK A01 T01620032  RH  042%=      5-min Rain = 0
KMC5 241916Z 06009KT 16/03 A3009 RMK A01 T01610034  RH  043%=      5-min Rain = 0
KMC5 241917Z 06008KT 16/03 A3009 RMK A01 T01610034  RH  043%=      5-min Rain = 0
KMC5 241918Z 05006KT 16/03 A3009 RMK A01 T01600033  RH  043%=      5-min Rain = 0
KMC5 241919Z 06007KT 16/04 A3009 RMK A01 T01600035  RH  043%=      5-min Rain = 0
KMC5 241920Z 06007KT 16/03 A3009 RMK A01 T01610034  RH  043%=      5-min Rain = 0
KMC5 241921Z 06009KT 16/03 A3009 RMK A01 T01610033  RH  042%=      5-min Rain = 0
KMC5 241922Z 05006KT 16/03 A3009 RMK A01 T01600033  RH  043%=      5-min Rain = 0
KMC5 241923Z 05005KT 16/03 A3009 RMK A01 T01590034  RH  043%=      5-min Rain = 0
KMC5 241924Z 04004KT 16/03 A3009 RMK A01 T01600029  RH  042%=      5-min Rain = 0
KMC5 241925Z 05003KT 16/03 A3009 RMK A01 T01600030  RH  042%=      5-min Rain = 0
KMC5 241926Z 08007KT 16/03 A3009 RMK A01 T01600032  RH  042%=      5-min Rain = 0
KMC5 241927Z 05007KT 16/03 A3009 RMK A01 T01600033  RH  043%=      5-min Rain = 0
KMC5 241928Z 07006KT 16/03 A3009 RMK A01 T01600033  RH  043%=      5-min Rain = 0
KMC5 241929Z 09004KT 16/03 A3009 RMK A01 T01600032  RH  042%=      5-min Rain = 0
KMC5 241930Z 10008KT 16/04 A3009 RMK A01 T01620035  RH  043%=      5-min Rain = 0
KMC5 241931Z 08009KT 16/03 A3009 RMK A01 T01640033  RH  041%=      5-min Rain = 0
KMC5 241932Z 07009KT 17/03 A3009 RMK A01 T01660032  RH  041%=      5-min Rain = 0
KMC5 241933Z 06008KT 17/03 A3009 RMK A01 T01670031  RH  040%=      5-min Rain = 0
KMC5 241934Z 05008KT 17/03 A3009 RMK A01 T01680030  RH  039%=      5-min Rain = 0
KMC5 241935Z 07008KT 17/03 A3009 RMK A01 T01680029  RH  039%=      5-min Rain = 0
KMC5 241936Z 08006KT 17/03 A3009 RMK A01 T01680025  RH  038%=      5-min Rain = 0
KMC5 241937Z 05009KT 17/02 A3009 RMK A01 T01670023  RH  038%=      5-min Rain = 0
KMC5 241938Z 06009KT 17/02 A3009 RMK A01 T01670021  RH  037%=      5-min Rain = 0
KMC5 241939Z 06009KT 17/03 A3009 RMK A01 T01660027  RH  039%=      5-min Rain = 0
KMC5 241940Z 08006KT 16/03 A3009 RMK A01 T01640028  RH  040%=      5-min Rain = 0
KMC5 241941Z 07004KT 16/03 A3009 RMK A01 T01640027  RH  040%=      5-min Rain = 0
KMC5 241942Z 06002KT 16/03 A3008 RMK A01 T01620028  RH  041%=      5-min Rain = 0
KMC5 241943Z 03002KT 16/03 A3008 RMK A01 T01640028  RH  040%=      5-min Rain = 0
KMC5 241944Z 08004KT 17/03 A3008 RMK A01 T01650027  RH  040%=      5-min Rain = 0
KMC5 241945Z 05008KT 17/03 A3008 RMK A01 T01670025  RH  038%=      5-min Rain = 0
KMC5 241946Z 04008KT 17/03 A3008 RMK A01 T01680027  RH  039%=      5-min Rain = 0
KMC5 241947Z 05007KT 17/03 A3008 RMK A01 T01700027  RH  038%=      5-min Rain = 0
KMC5 241948Z 07003KT 17/02 A3008 RMK A01 T01670019  RH  037%=      5-min Rain = 0
KMC5 241949Z 02001KT 17/02 A3008 RMK A01 T01650024  RH  039%=      5-min Rain = 0
KMC5 241950Z 03005KT 17/03 A3008 RMK A01 T01670027  RH  039%=      5-min Rain = 0
KMC5 241951Z 03003KT 17/03 A3008 RMK A01 T01720025  RH  037%=      5-min Rain = 0
KMC5 241952Z 08006KT 17/03 A3008 RMK A01 T01730028  RH  038%=      5-min Rain = 0
KMC5 241953Z 07008KT 18/03 A3008 RMK A01 T01760026  RH  037%=      5-min Rain = 0
KMC5 241954Z 08006KT 17/02 A3008 RMK A01 T01740022  RH  036%=      5-min Rain = 0
KMC5 241955Z 04004KT 17/02 A3008 RMK A01 T01690022  RH  037%=      5-min Rain = 0
KMC5 241956Z 06006KT 17/03 A3008 RMK A01 T01690027  RH  039%=      5-min Rain = 0
KMC5 241957Z 07005KT 17/03 A3008 RMK A01 T01700025  RH  038%=      5-min Rain = 0
KMC5 241958Z 07006KT 17/03 A3008 RMK A01 T01700025  RH  038%=      5-min Rain = 0
KMC5 241959Z 06008KT 17/03 A3007 RMK A01 T01710026  RH  038%=      5-min Rain = 0
KMC5 242000Z 05009KT 17/02 A3007 RMK A01 T01710023  RH  037%=      5-min Rain = 0
KMC5 242001Z 06006KT 17/01 A3007 RMK A01 T01710012  RH  034%=      5-min Rain = 0
KMC5 242002Z 06006KT 17/02 A3007 RMK A01 T01700017  RH  036%=      5-min Rain = 0
KMC5 242003Z 07008KT 17/01 A3007 RMK A01 T01700013  RH  035%=      5-min Rain = 0
KMC5 242004Z 08007KT 17/01 A3007 RMK A01 T01700011  RH  034%=      5-min Rain = 0
KMC5 242005Z 08004KT 17/01 A3007 RMK A01 T01670007  RH  034%=      5-min Rain = 0
KMC5 242006Z 10004KT 17/01 A3007 RMK A01 T01650008  RH  034%=      5-min Rain = 0
KMC5 242007Z 07003KT 17/00 A3007 RMK A01 T01650004  RH  034%=      5-min Rain = 0
KMC5 242008Z 03003KT 17/00 A3007 RMK A01 T01650002  RH  033%=      5-min Rain = 0
KMC5 242009Z 04003KT 16/00 A3007 RMK A01 T01640003  RH  033%=      5-min Rain = 0
KMC5 242010Z 07004KT 16/01 A3007 RMK A01 T01640013  RH  036%=      5-min Rain = 0
KMC5 242011Z 08007KT 17/01 A3007 RMK A01 T01650013  RH  036%=      5-min Rain = 0
KMC5 242012Z 08006KT 17/01 A3007 RMK A01 T01650008  RH  035%=      5-min Rain = 0
KMC5 242013Z 08005KT 17/02 A3007 RMK A01 T01650015  RH  036%=      5-min Rain = 0
KMC5 242014Z 10004KT 17/01 A3007 RMK A01 T01660005  RH  033%=      5-min Rain = 0
KMC5 242015Z 07006KT 17/01 A3007 RMK A01 T01660012  RH  035%=      5-min Rain = 0
KMC5 242016Z 08006KT 17/01 A3007 RMK A01 T01680008  RH  034%=      5-min Rain = 0
KMC5 242017Z 09005KT 17/01 A3007 RMK A01 T01700009  RH  034%=      5-min Rain = 0
KMC5 242018Z 09003KT 17/01 A3007 RMK A01 T01680009  RH  034%=      5-min Rain = 0
KMC5 242019Z 05002KT 17/02 A3007 RMK A01 T01680015  RH  036%=      5-min Rain = 0
KMC5 242020Z 05003KT 17/01 A3007 RMK A01 T01680012  RH  035%=      5-min Rain = 0
KMC5 242021Z 06005KT 17/01 A3007 RMK A01 T01680014  RH  036%=      5-min Rain = 0
KMC5 242022Z 07007KT 17/02 A3007 RMK A01 T01660020  RH  037%=      5-min Rain = 0
KMC5 242023Z 08006KT 17/01 A3007 RMK A01 T01660013  RH  036%=      5-min Rain = 0
KMC5 242024Z 08004KT 16/01 A3007 RMK A01 T01630013  RH  036%=      5-min Rain = 0
KMC5 242025Z 10003KT 16/02 A3007 RMK A01 T01630017  RH  037%=      5-min Rain = 0
KMC5 242026Z 10002KT 16/02 A3007 RMK A01 T01630016  RH  037%=      5-min Rain = 0
KMC5 242027Z 13002KT 16/02 A3007 RMK A01 T01620019  RH  038%=      5-min Rain = 0
KMC5 242028Z 10004KT 16/02 A3007 RMK A01 T01630024  RH  039%=      5-min Rain = 0
KMC5 242029Z 09002KT 16/02 A3007 RMK A01 T01640022  RH  038%=      5-min Rain = 0
KMC5 242030Z 05005KT 17/02 A3007 RMK A01 T01650023  RH  038%=      5-min Rain = 0
KMC5 242031Z 05007KT 17/02 A3007 RMK A01 T01660019  RH  037%=      5-min Rain = 0
KMC5 242032Z 05005KT 17/02 A3007 RMK A01 T01660019  RH  037%=      5-min Rain = 0
KMC5 242033Z 05003KT 17/02 A3007 RMK A01 T01660018  RH  037%=      5-min Rain = 0
KMC5 242034Z 06004KT 17/02 A3007 RMK A01 T01660020  RH  037%=      5-min Rain = 0
KMC5 242035Z 07006KT 17/02 A3007 RMK A01 T01680021  RH  037%=      5-min Rain = 0
KMC5 242036Z 07007KT 17/02 A3007 RMK A01 T01700018  RH  036%=      5-min Rain = 0
KMC5 242037Z 07005KT 17/02 A3007 RMK A01 T01690015  RH  035%=      5-min Rain = 0
KMC5 242038Z 07005KT 17/02 A3007 RMK A01 T01680016  RH  036%=      5-min Rain = 0
KMC5 242039Z 06005KT 17/02 A3007 RMK A01 T01670015  RH  036%=      5-min Rain = 0
KMC5 242040Z 06004KT 17/02 A3007 RMK A01 T01660015  RH  036%=      5-min Rain = 0
KMC5 242041Z 05003KT 17/01 A3007 RMK A01 T01650014  RH  036%=      5-min Rain = 0
KMC5 242042Z 04004KT 17/02 A3007 RMK A01 T01650019  RH  037%=      5-min Rain = 0
KMC5 242043Z 04003KT 17/01 A3007 RMK A01 T01650014  RH  036%=      5-min Rain = 0
KMC5 242044Z 02002KT 17/01 A3007 RMK A01 T01650013  RH  036%=      5-min Rain = 0
KMC5 242045Z 08002KT 17/02 A3007 RMK A01 T01650015  RH  036%=      5-min Rain = 0
KMC5 242046Z 08005KT 17/02 A3007 RMK A01 T01660022  RH  038%=      5-min Rain = 0
KMC5 242047Z 09006KT 17/02 A3007 RMK A01 T01680023  RH  038%=      5-min Rain = 0
KMC5 242048Z 09006KT 17/02 A3007 RMK A01 T01680019  RH  037%=      5-min Rain = 0
KMC5 242049Z 09005KT 17/02 A3007 RMK A01 T01660016  RH  036%=      5-min Rain = 0
KMC5 242050Z 11004KT 16/02 A3007 RMK A01 T01640017  RH  037%=      5-min Rain = 0
KMC5 242051Z 11002KT 16/02 A3007 RMK A01 T01630017  RH  037%=      5-min Rain = 0
KMC5 242052Z 10002KT 16/02 A3007 RMK A01 T01630018  RH  038%=      5-min Rain = 0
KMC5 242053Z 14000KT 16/02 A3007 RMK A01 T01630016  RH  037%=      5-min Rain = 0
KMC5 242054Z 13002KT 16/02 A3007 RMK A01 T01630020  RH  038%=      5-min Rain = 0
KMC5 242055Z 14002KT 17/02 A3007 RMK A01 T01650020  RH  038%=      5-min Rain = 0
KMC5 242056Z 13002KT 16/02 A3007 RMK A01 T01640020  RH  038%=      5-min Rain = 0
KMC5 242057Z 10002KT 17/02 A3007 RMK A01 T01650022  RH  038%=      5-min Rain = 0
KMC5 242058Z 10003KT 17/02 A3007 RMK A01 T01650021  RH  038%=      5-min Rain = 0
KMC5 242059Z 11004KT 17/02 A3007 RMK A01 T01650023  RH  038%=      5-min Rain = 0
KMC5 242100Z 09004KT 17/03 A3007 RMK A01 T01650025  RH  039%=      5-min Rain = 0
KMC5 242101Z 08006KT 17/03 A3007 RMK A01 T01660025  RH  039%=      5-min Rain = 0
KMC5 242102Z 07006KT 17/03 A3007 RMK A01 T01660027  RH  039%=      5-min Rain = 0
KMC5 242103Z 07005KT 17/02 A3007 RMK A01 T01680023  RH  038%=      5-min Rain = 0
KMC5 242104Z 03004KT 17/02 A3007 RMK A01 T01670022  RH  038%=      5-min Rain = 0
KMC5 242105Z 02003KT 17/02 A3007 RMK A01 T01670024  RH  038%=      5-min Rain = 0
KMC5 242106Z 08003KT 17/03 A3007 RMK A01 T01680026  RH  039%=      5-min Rain = 0
KMC5 242107Z 11005KT 17/03 A3007 RMK A01 T01700026  RH  038%=      5-min Rain = 0
KMC5 242108Z 12005KT 17/02 A3007 RMK A01 T01690022  RH  037%=      5-min Rain = 0
KMC5 242109Z 09006KT 17/03 A3007 RMK A01 T01680025  RH  038%=      5-min Rain = 0
KMC5 242110Z 08005KT 17/02 A3007 RMK A01 T01670023  RH  038%=      5-min Rain = 0
KMC5 242111Z 10006KT 17/03 A3007 RMK A01 T01660026  RH  039%=      5-min Rain = 0
KMC5 242112Z 11005KT 17/02 A3007 RMK A01 T01650021  RH  038%=      5-min Rain = 0
KMC5 242113Z 11006KT 16/02 A3007 RMK A01 T01640021  RH  038%=      5-min Rain = 0
KMC5 242114Z 11005KT 16/02 A3007 RMK A01 T01640023  RH  039%=      5-min Rain = 0
KMC5 242115Z 11002KT 16/02 A3006 RMK A01 T01640021  RH  038%=      5-min Rain = 0
KMC5 242116Z 13004KT 17/02 A3006 RMK A01 T01650022  RH  038%=      5-min Rain = 0
KMC5 242117Z 13004KT 17/02 A3006 RMK A01 T01660021  RH  038%=      5-min Rain = 0
KMC5 242118Z 12003KT 17/02 A3006 RMK A01 T01660020  RH  037%=      5-min Rain = 0
KMC5 242119Z 11003KT 17/03 A3006 RMK A01 T01690027  RH  039%=      5-min Rain = 0
KMC5 242120Z 10004KT 17/03 A3006 RMK A01 T01740028  RH  038%=      5-min Rain = 0
KMC5 242121Z 08003KT 18/02 A3006 RMK A01 T01750022  RH  036%=      5-min Rain = 0
KMC5 242122Z 10001KT 17/03 A3006 RMK A01 T01740027  RH  037%=      5-min Rain = 0
KMC5 242123Z 13003KT 18/03 A3006 RMK A01 T01760028  RH  037%=      5-min Rain = 0
KMC5 242124Z 15005KT 18/03 A3006 RMK A01 T01770026  RH  036%=      5-min Rain = 0
KMC5 242125Z 15005KT 18/03 A3006 RMK A01 T01770028  RH  037%=      5-min Rain = 0
KMC5 242126Z 11006KT 18/03 A3006 RMK A01 T01780028  RH  037%=      5-min Rain = 0
KMC5 242127Z 09006KT 18/03 A3006 RMK A01 T01780026  RH  036%=      5-min Rain = 0
KMC5 242128Z 08003KT 18/03 A3006 RMK A01 T01760026  RH  037%=      5-min Rain = 0
KMC5 242129Z 08003KT 18/03 A3006 RMK A01 T01760026  RH  037%=      5-min Rain = 0
KMC5 242130Z 11007KT 18/03 A3007 RMK A01 T01760027  RH  037%=      5-min Rain = 0
KMC5 242131Z 10006KT 18/03 A3007 RMK A01 T01760025  RH  036%=      5-min Rain = 0
KMC5 242132Z 10003KT 17/02 A3007 RMK A01 T01740024  RH  036%=      5-min Rain = 0
KMC5 242133Z 10005KT 17/02 A3007 RMK A01 T01740024  RH  037%=      5-min Rain = 0
KMC5 242134Z 13008KT 18/03 A3006 RMK A01 T01750026  RH  037%=      5-min Rain = 0
KMC5 242135Z 13006KT 18/03 A3006 RMK A01 T01750027  RH  037%=      5-min Rain = 0
KMC5 242136Z 13005KT 18/03 A3006 RMK A01 T01750025  RH  036%=      5-min Rain = 0
KMC5 242137Z 12004KT 18/03 A3006 RMK A01 T01760027  RH  037%=      5-min Rain = 0
KMC5 242138Z 16002KT 18/02 A3006 RMK A01 T01770022  RH  035%=      5-min Rain = 0
KMC5 242139Z 22000KT 18/02 A3006 RMK A01 T01750021  RH  036%=      5-min Rain = 0
KMC5 242140Z 15002KT 18/02 A3006 RMK A01 T01750021  RH  036%=      5-min Rain = 0
KMC5 242141Z 22004KT 18/03 A3006 RMK A01 T01750028  RH  037%=      5-min Rain = 0
KMC5 242142Z 17007KT 18/03 A3006 RMK A01 T01770029  RH  037%=      5-min Rain = 0
KMC5 242143Z 13007KT 18/03 A3006 RMK A01 T01800027  RH  036%=      5-min Rain = 0
KMC5 242144Z 16005KT 18/03 A3006 RMK A01 T01790025  RH  036%=      5-min Rain = 0
KMC5 242145Z 17004KT 18/02 A3006 RMK A01 T01780024  RH  036%=      5-min Rain = 0
KMC5 242146Z 12002KT 18/02 A3006 RMK A01 T01770023  RH  036%=      5-min Rain = 0
KMC5 242147Z 03000KT 18/02 A3006 RMK A01 T01760023  RH  036%=      5-min Rain = 0
KMC5 242148Z 14003KT 18/03 A3006 RMK A01 T01770026  RH  036%=      5-min Rain = 0
KMC5 242149Z 15005KT 18/02 A3006 RMK A01 T01780024  RH  036%=      5-min Rain = 0
KMC5 242150Z 16003KT 18/02 A3006 RMK A01 T01780021  RH  035%=      5-min Rain = 0
KMC5 242151Z 20001KT 18/02 A3006 RMK A01 T01770024  RH  036%=      5-min Rain = 0
KMC5 242152Z 17002KT 18/02 A3006 RMK A01 T01770024  RH  036%=      5-min Rain = 0
KMC5 242153Z 12003KT 18/03 A3006 RMK A01 T01790027  RH  036%=      5-min Rain = 0
KMC5 242154Z 15002KT 18/03 A3006 RMK A01 T01800026  RH  036%=      5-min Rain = 0
KMC5 242155Z 08003KT 18/03 A3006 RMK A01 T01820028  RH  036%=      5-min Rain = 0
KMC5 242156Z 10002KT 18/02 A3006 RMK A01 T01820022  RH  034%=      5-min Rain = 0
KMC5 242157Z 12001KT 18/03 A3006 RMK A01 T01810027  RH  036%=      5-min Rain = 0
KMC5 242158Z 09005KT 18/03 A3006 RMK A01 T01810025  RH  035%=      5-min Rain = 0
KMC5 242159Z 08006KT 18/02 A3006 RMK A01 T01810021  RH  034%=      5-min Rain = 0
KMC5 242200Z 08004KT 18/02 A3006 RMK A01 T01780021  RH  035%=      5-min Rain = 0
KMC5 242201Z 08004KT 18/02 A3006 RMK A01 T01770020  RH  035%=      5-min Rain = 0
KMC5 242202Z 06003KT 18/02 A3006 RMK A01 T01760020  RH  035%=      5-min Rain = 0
KMC5 242203Z 08003KT 18/02 A3006 RMK A01 T01760022  RH  036%=      5-min Rain = 0
KMC5 242204Z 09004KT 18/02 A3006 RMK A01 T01760022  RH  036%=      5-min Rain = 0
KMC5 242205Z 07001KT 18/02 A3006 RMK A01 T01760020  RH  035%=      5-min Rain = 0
KMC5 242206Z 36001KT 18/02 A3006 RMK A01 T01760020  RH  035%=      5-min Rain = 0
KMC5 242207Z 00000KT 18/02 A3006 RMK A01 T01770018  RH  034%=      5-min Rain = 0
KMC5 242208Z 00000KT 18/02 A3006 RMK A01 T01790023  RH  035%=      5-min Rain = 0
KMC5 242209Z 09000KT 18/02 A3006 RMK A01 T01810020  RH  034%=      5-min Rain = 0
KMC5 242210Z 11001KT 18/02 A3006 RMK A01 T01820022  RH  034%=      5-min Rain = 0
KMC5 242211Z 12002KT 18/02 A3006 RMK A01 T01820019  RH  033%=      5-min Rain = 0
KMC5 242212Z 17000KT 18/02 A3006 RMK A01 T01810019  RH  034%=      5-min Rain = 0
KMC5 242213Z 23002KT 18/03 A3006 RMK A01 T01800028  RH  036%=      5-min Rain = 0
KMC5 242214Z 19003KT 18/02 A3006 RMK A01 T01820024  RH  035%=      5-min Rain = 0
KMC5 242215Z 18001KT 18/03 A3006 RMK A01 T01840025  RH  035%=      5-min Rain = 0
KMC5 242216Z 22003KT 19/02 A3006 RMK A01 T01850024  RH  034%=      5-min Rain = 0
KMC5 242217Z 21003KT 19/02 A3006 RMK A01 T01850023  RH  034%=      5-min Rain = 0
KMC5 242218Z 18002KT 18/02 A3006 RMK A01 T01840020  RH  033%=      5-min Rain = 0
KMC5 242219Z 20002KT 18/02 A3006 RMK A01 T01840019  RH  033%=      5-min Rain = 0
KMC5 242220Z 14001KT 18/02 A3006 RMK A01 T01830019  RH  033%=      5-min Rain = 0
KMC5 242221Z 11004KT 18/03 A3006 RMK A01 T01820025  RH  035%=      5-min Rain = 0
KMC5 242222Z 11004KT 18/02 A3006 RMK A01 T01830024  RH  035%=      5-min Rain = 0
KMC5 242223Z 09003KT 18/02 A3006 RMK A01 T01810022  RH  034%=      5-min Rain = 0
KMC5 242224Z 09004KT 18/02 A3006 RMK A01 T01800024  RH  035%=      5-min Rain = 0
KMC5 242225Z 11004KT 18/02 A3006 RMK A01 T01790020  RH  034%=      5-min Rain = 0
KMC5 242226Z 08003KT 18/02 A3006 RMK A01 T01780020  RH  035%=      5-min Rain = 0
KMC5 242227Z 11003KT 18/02 A3006 RMK A01 T01770021  RH  035%=      5-min Rain = 0
KMC5 242228Z 12005KT 18/02 A3006 RMK A01 T01780023  RH  035%=      5-min Rain = 0
KMC5 242229Z 11004KT 18/02 A3006 RMK A01 T01790021  RH  035%=      5-min Rain = 0
KMC5 242230Z 10002KT 18/02 A3006 RMK A01 T01790021  RH  035%=      5-min Rain = 0
KMC5 242231Z 12001KT 18/02 A3006 RMK A01 T01790019  RH  034%=      5-min Rain = 0
KMC5 242232Z 04002KT 18/02 A3006 RMK A01 T01790019  RH  034%=      5-min Rain = 0
KMC5 242233Z 00002KT 18/02 A3006 RMK A01 T01790017  RH  034%=      5-min Rain = 0
KMC5 242234Z 36000KT 18/02 A3006 RMK A01 T01780018  RH  034%=      5-min Rain = 0
KMC5 242235Z 35004KT 18/02 A3006 RMK A01 T01790022  RH  035%=      5-min Rain = 0
KMC5 242236Z 00002KT 18/02 A3006 RMK A01 T01790020  RH  034%=      5-min Rain = 0
KMC5 242237Z 06003KT 18/02 A3006 RMK A01 T01790021  RH  035%=      5-min Rain = 0
KMC5 242238Z 07004KT 18/02 A3006 RMK A01 T01790019  RH  034%=      5-min Rain = 0
KMC5 242239Z 09004KT 18/02 A3006 RMK A01 T01790021  RH  035%=      5-min Rain = 0
KMC5 242240Z 10003KT 18/02 A3006 RMK A01 T01790019  RH  034%=      5-min Rain = 0
KMC5 242241Z 08001KT 18/02 A3006 RMK A01 T01780023  RH  035%=      5-min Rain = 0
KMC5 242242Z 09002KT 18/02 A3006 RMK A01 T01790023  RH  035%=      5-min Rain = 0
KMC5 242243Z 07003KT 18/02 A3006 RMK A01 T01800018  RH  034%=      5-min Rain = 0
KMC5 242244Z 06002KT 18/02 A3006 RMK A01 T01790021  RH  035%=      5-min Rain = 0
KMC5 242245Z 29000KT 18/02 A3006 RMK A01 T01790016  RH  033%=      5-min Rain = 0
KMC5 242246Z 34001KT 18/02 A3006 RMK A01 T01800017  RH  034%=      5-min Rain = 0
KMC5 242247Z 35000KT 18/02 A3006 RMK A01 T01810020  RH  034%=      5-min Rain = 0
KMC5 242248Z 29001KT 18/02 A3006 RMK A01 T01830020  RH  034%=      5-min Rain = 0
KMC5 242249Z 32001KT 18/03 A3006 RMK A01 T01830025  RH  035%=      5-min Rain = 0
KMC5 242250Z 33002KT 18/03 A3006 RMK A01 T01840026  RH  035%=      5-min Rain = 0
KMC5 242251Z 34003KT 19/02 A3006 RMK A01 T01850022  RH  034%=      5-min Rain = 0
KMC5 242252Z 34003KT 19/02 A3006 RMK A01 T01850024  RH  034%=      5-min Rain = 0
KMC5 242253Z 34003KT 18/02 A3006 RMK A01 T01840022  RH  034%=      5-min Rain = 0
KMC5 242254Z 35002KT 18/02 A3006 RMK A01 T01830021  RH  034%=      5-min Rain = 0
KMC5 242255Z 07003KT 18/02 A3006 RMK A01 T01830023  RH  034%=      5-min Rain = 0
KMC5 242256Z 06004KT 18/03 A3006 RMK A01 T01820026  RH  035%=      5-min Rain = 0
KMC5 242257Z 07003KT 18/03 A3006 RMK A01 T01830027  RH  035%=      5-min Rain = 0
KMC5 242258Z 08004KT 18/02 A3006 RMK A01 T01840023  RH  034%=      5-min Rain = 0
KMC5 242259Z 09004KT 18/02 A3006 RMK A01 T01810023  RH  035%=      5-min Rain = 0
KMC5 242300Z 11004KT 18/03 A3006 RMK A01 T01810026  RH  036%=      5-min Rain = 0
KMC5 242301Z 10005KT 18/03 A3006 RMK A01 T01830027  RH  035%=      5-min Rain = 0
KMC5 242302Z 10005KT 18/03 A3006 RMK A01 T01830026  RH  035%=      5-min Rain = 0
KMC5 242303Z 09005KT 18/02 A3006 RMK A01 T01830024  RH  035%=      5-min Rain = 0
KMC5 242304Z 07005KT 18/02 A3006 RMK A01 T01810022  RH  034%=      5-min Rain = 0
KMC5 242305Z 06005KT 18/02 A3006 RMK A01 T01800023  RH  035%=      5-min Rain = 0
KMC5 242306Z 04004KT 18/02 A3006 RMK A01 T01800024  RH  035%=      5-min Rain = 0
KMC5 242307Z 04002KT 18/02 A3006 RMK A01 T01790020  RH  034%=      5-min Rain = 0
KMC5 242308Z 02004KT 18/02 A3006 RMK A01 T01790023  RH  035%=      5-min Rain = 0
KMC5 242309Z 01002KT 18/02 A3006 RMK A01 T01780020  RH  035%=      5-min Rain = 0
KMC5 242310Z 03004KT 18/02 A3006 RMK A01 T01770020  RH  035%=      5-min Rain = 0
KMC5 242311Z 05006KT 18/02 A3006 RMK A01 T01770023  RH  036%=      5-min Rain = 0
KMC5 242312Z 05004KT 18/02 A3006 RMK A01 T01780022  RH  035%=      5-min Rain = 0
KMC5 242313Z 03003KT 18/03 A3006 RMK A01 T01790029  RH  037%=      5-min Rain = 0
KMC5 242314Z 05002KT 18/03 A3006 RMK A01 T01810026  RH  035%=      5-min Rain = 0
KMC5 242315Z 06002KT 18/02 A3006 RMK A01 T01820021  RH  034%=      5-min Rain = 0
KMC5 242316Z 10003KT 18/03 A3007 RMK A01 T01810025  RH  035%=      5-min Rain = 0
KMC5 242317Z 08003KT 18/02 A3007 RMK A01 T01810024  RH  035%=      5-min Rain = 0
KMC5 242318Z 10004KT 18/03 A3007 RMK A01 T01810026  RH  036%=      5-min Rain = 0
KMC5 242319Z 09004KT 18/02 A3007 RMK A01 T01810021  RH  034%=      5-min Rain = 0
KMC5 242320Z 08003KT 18/02 A3007 RMK A01 T01800022  RH  035%=      5-min Rain = 0
KMC5 242321Z 07004KT 18/02 A3007 RMK A01 T01800022  RH  035%=      5-min Rain = 0
KMC5 242322Z 07004KT 18/02 A3007 RMK A01 T01790021  RH  035%=      5-min Rain = 0
KMC5 242323Z 05004KT 18/02 A3007 RMK A01 T01780020  RH  035%=      5-min Rain = 0
KMC5 242324Z 06003KT 18/02 A3007 RMK A01 T01780022  RH  035%=      5-min Rain = 0
KMC5 242325Z 13003KT 18/02 A3007 RMK A01 T01780024  RH  036%=      5-min Rain = 0
KMC5 242326Z 12003KT 18/03 A3007 RMK A01 T01800025  RH  036%=      5-min Rain = 0
KMC5 242327Z 10003KT 18/03 A3007 RMK A01 T01810026  RH  036%=      5-min Rain = 0
KMC5 242328Z 06003KT 18/02 A3007 RMK A01 T01820024  RH  035%=      5-min Rain = 0
KMC5 242329Z 06003KT 18/02 A3007 RMK A01 T01820023  RH  035%=      5-min Rain = 0
KMC5 242330Z 05002KT 18/02 A3007 RMK A01 T01810021  RH  034%=      5-min Rain = 0
KMC5 242331Z 05003KT 18/02 A3007 RMK A01 T01800021  RH  034%=      5-min Rain = 0
KMC5 242332Z 09001KT 18/02 A3007 RMK A01 T01790021  RH  035%=      5-min Rain = 0
KMC5 242333Z 11001KT 18/02 A3007 RMK A01 T01790021  RH  035%=      5-min Rain = 0
KMC5 242334Z 04000KT 18/02 A3007 RMK A01 T01780019  RH  034%=      5-min Rain = 0
KMC5 242335Z 11000KT 18/02 A3007 RMK A01 T01790020  RH  035%=      5-min Rain = 0
KMC5 242336Z 08002KT 18/02 A3007 RMK A01 T01800023  RH  035%=      5-min Rain = 0
KMC5 242337Z 07003KT 18/02 A3007 RMK A01 T01810021  RH  034%=      5-min Rain = 0
KMC5 242338Z 07002KT 18/02 A3007 RMK A01 T01800020  RH  034%=      5-min Rain = 0
KMC5 242339Z 10002KT 18/02 A3007 RMK A01 T01800021  RH  035%=      5-min Rain = 0
KMC5 242340Z 10003KT 18/02 A3007 RMK A01 T01790019  RH  034%=      5-min Rain = 0
KMC5 242341Z 09003KT 18/02 A3007 RMK A01 T01790020  RH  034%=      5-min Rain = 0
KMC5 242342Z 07003KT 18/02 A3007 RMK A01 T01780021  RH  035%=      5-min Rain = 0
KMC5 242343Z 09001KT 18/02 A3007 RMK A01 T01780019  RH  034%=      5-min Rain = 0
KMC5 242344Z 06002KT 18/02 A3007 RMK A01 T01780020  RH  035%=      5-min Rain = 0
KMC5 242345Z 05001KT 18/02 A3007 RMK A01 T01780020  RH  035%=      5-min Rain = 0
KMC5 242346Z 04000KT 18/02 A3007 RMK A01 T01780021  RH  035%=      5-min Rain = 0
KMC5 242347Z 15000KT 18/02 A3007 RMK A01 T01800020  RH  034%=      5-min Rain = 0
KMC5 242348Z 15001KT 18/02 A3007 RMK A01 T01810022  RH  034%=      5-min Rain = 0
KMC5 242349Z 16000KT 18/02 A3007 RMK A01 T01820019  RH  033%=      5-min Rain = 0
KMC5 242350Z 00000KT 18/02 A3007 RMK A01 T01820019  RH  033%=      5-min Rain = 0
KMC5 242351Z 00000KT 18/02 A3007 RMK A01 T01820019  RH  033%=      5-min Rain = 0
KMC5 242352Z 00000KT 18/02 A3007 RMK A01 T01820019  RH  034%=      5-min Rain = 0
KMC5 242353Z 11001KT 18/02 A3007 RMK A01 T01810018  RH  034%=      5-min Rain = 0
KMC5 242354Z 14001KT 18/02 A3007 RMK A01 T01810021  RH  034%=      5-min Rain = 0
KMC5 242355Z 12000KT 18/02 A3007 RMK A01 T01800020  RH  034%=      5-min Rain = 0
KMC5 242356Z 06000KT 18/02 A3007 RMK A01 T01800020  RH  034%=      5-min Rain = 0
KMC5 242357Z 05000KT 18/02 A3007 RMK A01 T01800019  RH  034%=      5-min Rain = 0
KMC5 242358Z 16000KT 18/02 A3007 RMK A01 T01800024  RH  035%=      5-min Rain = 0
KMC5 242359Z 17000KT 18/02 A3008 RMK A01 T01810021  RH  034%=      5-min Rain = 0
KMC5 250000Z 19001KT 18/02 A3008 RMK A01 T01810018  RH  034%=      5-min Rain = 0
KMC5 250001Z 20001KT 18/02 A3008 RMK A01 T01810019  RH  034%=      5-min Rain = 0
KMC5 250002Z 25000KT 18/02 A3007 RMK A01 T01820022  RH  034%=      5-min Rain = 0
KMC5 250003Z 25000KT 18/02 A3007 RMK A01 T01840024  RH  034%=      5-min Rain = 0
KMC5 250004Z 11003KT 18/02 A3007 RMK A01 T01840022  RH  034%=      5-min Rain = 0
KMC5 250005Z 10003KT 18/03 A3007 RMK A01 T01820025  RH  035%=      5-min Rain = 0
KMC5 250006Z 10004KT 18/03 A3007 RMK A01 T01810027  RH  036%=      5-min Rain = 0
KMC5 250007Z 10004KT 18/03 A3007 RMK A01 T01790025  RH  036%=      5-min Rain = 0
KMC5 250008Z 09002KT 18/03 A3007 RMK A01 T01780025  RH  036%=      5-min Rain = 0
KMC5 250009Z 10003KT 18/03 A3007 RMK A01 T01770027  RH  037%=      5-min Rain = 0
KMC5 250010Z 09004KT 18/03 A3007 RMK A01 T01770030  RH  037%=      5-min Rain = 0
KMC5 250011Z 09004KT 18/03 A3007 RMK A01 T01760029  RH  038%=      5-min Rain = 0
KMC5 250012Z 08004KT 18/03 A3007 RMK A01 T01760025  RH  037%=      5-min Rain = 0
KMC5 250013Z 08003KT 18/02 A3007 RMK A01 T01750023  RH  036%=      5-min Rain = 0
KMC5 250014Z 09003KT 17/02 A3007 RMK A01 T01740024  RH  036%=      5-min Rain = 0
KMC5 250015Z 09003KT 17/03 A3007 RMK A01 T01740026  RH  037%=      5-min Rain = 0
KMC5 250016Z 11003KT 17/03 A3007 RMK A01 T01740028  RH  038%=      5-min Rain = 0
KMC5 250017Z 09004KT 17/03 A3007 RMK A01 T01730025  RH  037%=      5-min Rain = 0
KMC5 250018Z 09004KT 17/03 A3007 RMK A01 T01730027  RH  038%=      5-min Rain = 0
KMC5 250019Z 10005KT 17/03 A3007 RMK A01 T01720029  RH  038%=      5-min Rain = 0
KMC5 250020Z 10005KT 17/03 A3007 RMK A01 T01710029  RH  038%=      5-min Rain = 0
KMC5 250021Z 09004KT 17/03 A3007 RMK A01 T01710029  RH  039%=      5-min Rain = 0
KMC5 250022Z 09004KT 17/03 A3007 RMK A01 T01700032  RH  040%=      5-min Rain = 0
KMC5 250023Z 09004KT 17/03 A3007 RMK A01 T01690033  RH  040%=      5-min Rain = 0
KMC5 250024Z 09004KT 17/03 A3007 RMK A01 T01690032  RH  040%=      5-min Rain = 0
KMC5 250025Z 09004KT 17/03 A3007 RMK A01 T01680032  RH  040%=      5-min Rain = 0
KMC5 250026Z 09005KT 17/03 A3007 RMK A01 T01680031  RH  040%=      5-min Rain = 0
KMC5 250027Z 09004KT 17/03 A3007 RMK A01 T01670028  RH  039%=      5-min Rain = 0
KMC5 250028Z 09004KT 17/03 A3007 RMK A01 T01680029  RH  039%=      5-min Rain = 0
KMC5 250029Z 09005KT 17/03 A3007 RMK A01 T01680031  RH  040%=      5-min Rain = 0
KMC5 250030Z 10004KT 17/03 A3007 RMK A01 T01670032  RH  040%=      5-min Rain = 0
KMC5 250031Z 09004KT 17/03 A3007 RMK A01 T01660032  RH  041%=      5-min Rain = 0
KMC5 250032Z 09004KT 17/03 A3007 RMK A01 T01660032  RH  041%=      5-min Rain = 0
KMC5 250033Z 08004KT 17/03 A3007 RMK A01 T01650031  RH  041%=      5-min Rain = 0
KMC5 250034Z 08005KT 16/03 A3007 RMK A01 T01640030  RH  041%=      5-min Rain = 0
KMC5 250035Z 08005KT 16/03 A3008 RMK A01 T01640029  RH  041%=      5-min Rain = 0
KMC5 250036Z 08004KT 16/03 A3008 RMK A01 T01630029  RH  041%=      5-min Rain = 0
KMC5 250037Z 08004KT 16/03 A3008 RMK A01 T01620029  RH  041%=      5-min Rain = 0
KMC5 250038Z 08005KT 16/03 A3008 RMK A01 T01610029  RH  041%=      5-min Rain = 0
KMC5 250039Z 08005KT 16/03 A3008 RMK A01 T01600029  RH  041%=      5-min Rain = 0
KMC5 250040Z 08005KT 16/03 A3008 RMK A01 T01600029  RH  041%=      5-min Rain = 0
KMC5 250041Z 08006KT 16/03 A3008 RMK A01 T01590029  RH  042%=      5-min Rain = 0
KMC5 250042Z 08006KT 16/03 A3008 RMK A01 T01580028  RH  042%=      5-min Rain = 0
KMC5 250043Z 08006KT 16/03 A3008 RMK A01 T01580028  RH  042%=      5-min Rain = 0
KMC5 250044Z 07006KT 16/03 A3008 RMK A01 T01580029  RH  042%=      5-min Rain = 0
KMC5 250045Z 07006KT 16/03 A3008 RMK A01 T01570029  RH  042%=      5-min Rain = 0
KMC5 250046Z 07006KT 16/03 A3008 RMK A01 T01560029  RH  042%=      5-min Rain = 0
KMC5 250047Z 07006KT 16/03 A3008 RMK A01 T01560029  RH  043%=      5-min Rain = 0
KMC5 250048Z 08005KT 16/03 A3008 RMK A01 T01550029  RH  043%=      5-min Rain = 0
KMC5 250049Z 08005KT 16/03 A3008 RMK A01 T01550029  RH  043%=      5-min Rain = 0
KMC5 250050Z 07005KT 16/03 A3008 RMK A01 T01550029  RH  043%=      5-min Rain = 0
KMC5 250051Z 08005KT 16/03 A3008 RMK A01 T01550029  RH  043%=      5-min Rain = 0
KMC5 250052Z 07005KT 16/03 A3008 RMK A01 T01550029  RH  043%=      5-min Rain = 0
KMC5 250053Z 07005KT 16/03 A3008 RMK A01 T01550029  RH  043%=      5-min Rain = 0
KMC5 250054Z 07005KT 15/03 A3008 RMK A01 T01540032  RH  044%=      5-min Rain = 0
KMC5 250055Z 07004KT 15/03 A3008 RMK A01 T01520031  RH  044%=      5-min Rain = 0
KMC5 250056Z 07004KT 15/03 A3008 RMK A01 T01500030  RH  044%=      5-min Rain = 0
KMC5 250057Z 07004KT 15/03 A3008 RMK A01 T01500030  RH  044%=      5-min Rain = 0
KMC5 250058Z 07004KT 15/03 A3008 RMK A01 T01500030  RH  044%=      5-min Rain = 0
KMC5 250059Z 06004KT 15/03 A3007 RMK A01 T01500030  RH  044%=      5-min Rain = 0
KMC5 250100Z 06004KT 15/03 A3007 RMK A01 T01500030  RH  044%=      5-min Rain = 0
KMC5 250101Z 06004KT 15/03 A3007 RMK A01 T01500031  RH  045%=      5-min Rain = 0
KMC5 250102Z 05004KT 15/03 A3008 RMK A01 T01500031  RH  045%=      5-min Rain = 0
KMC5 250103Z 05004KT 15/03 A3007 RMK A01 T01500032  RH  045%=      5-min Rain = 0
KMC5 250104Z 05004KT 15/03 A3007 RMK A01 T01500033  RH  045%=      5-min Rain = 0
KMC5 250105Z 06004KT 15/03 A3007 RMK A01 T01490033  RH  045%=      5-min Rain = 0
KMC5 250106Z 05004KT 15/03 A3007 RMK A01 T01490033  RH  046%=      5-min Rain = 0
KMC5 250107Z 05004KT 15/03 A3007 RMK A01 T01490033  RH  046%=      5-min Rain = 0
KMC5 250108Z 05005KT 15/03 A3007 RMK A01 T01480033  RH  046%=      5-min Rain = 0
KMC5 250109Z 06004KT 15/03 A3007 RMK A01 T01470034  RH  047%=      5-min Rain = 0
KMC5 250110Z 05004KT 15/03 A3007 RMK A01 T01450034  RH  047%=      5-min Rain = 0
KMC5 250111Z 06004KT 14/03 A3007 RMK A01 T01440034  RH  048%=      5-min Rain = 0
KMC5 250112Z 06005KT 14/03 A3008 RMK A01 T01430034  RH  048%=      5-min Rain = 0
KMC5 250113Z 06004KT 14/04 A3008 RMK A01 T01430035  RH  048%=      5-min Rain = 0
KMC5 250114Z 06004KT 14/04 A3008 RMK A01 T01420035  RH  049%=      5-min Rain = 0
KMC5 250115Z 06004KT 14/04 A3008 RMK A01 T01420036  RH  049%=      5-min Rain = 0
KMC5 250116Z 07004KT 14/04 A3008 RMK A01 T01410036  RH  049%=      5-min Rain = 0
KMC5 250117Z 07004KT 14/04 A3008 RMK A01 T01410037  RH  049%=      5-min Rain = 0
KMC5 250118Z 07004KT 14/04 A3008 RMK A01 T01410036  RH  049%=      5-min Rain = 0
KMC5 250119Z 07004KT 14/04 A3008 RMK A01 T01410036  RH  049%=      5-min Rain = 0
KMC5 250120Z 07004KT 14/04 A3008 RMK A01 T01410036  RH  049%=      5-min Rain = 0
KMC5 250121Z 06004KT 14/04 A3008 RMK A01 T01400036  RH  049%=      5-min Rain = 0
KMC5 250122Z 06004KT 14/04 A3008 RMK A01 T01400036  RH  049%=      5-min Rain = 0
KMC5 250123Z 06003KT 14/04 A3008 RMK A01 T01390036  RH  050%=      5-min Rain = 0
KMC5 250124Z 06004KT 14/04 A3008 RMK A01 T01380036  RH  050%=      5-min Rain = 0
KMC5 250125Z 06004KT 14/04 A3008 RMK A01 T01380036  RH  050%=      5-min Rain = 0
KMC5 250126Z 06004KT 14/04 A3008 RMK A01 T01390035  RH  050%=      5-min Rain = 0
KMC5 250127Z 06005KT 14/04 A3008 RMK A01 T01400035  RH  049%=      5-min Rain = 0
KMC5 250128Z 06004KT 14/04 A3008 RMK A01 T01400035  RH  049%=      5-min Rain = 0
KMC5 250129Z 07004KT 14/04 A3008 RMK A01 T01410035  RH  049%=      5-min Rain = 0
KMC5 250130Z 07004KT 14/04 A3008 RMK A01 T01410035  RH  049%=      5-min Rain = 0
KMC5 250131Z 07004KT 14/04 A3008 RMK A01 T01410035  RH  049%=      5-min Rain = 0
KMC5 250132Z 08004KT 14/04 A3008 RMK A01 T01410035  RH  049%=      5-min Rain = 0
KMC5 250133Z 08005KT 14/04 A3008 RMK A01 T01410035  RH  049%=      5-min Rain = 0
KMC5 250134Z 08005KT 14/04 A3008 RMK A01 T01410035  RH  049%=      5-min Rain = 0
KMC5 250135Z 08005KT 14/03 A3008 RMK A01 T01400034  RH  049%=      5-min Rain = 0
KMC5 250136Z 08005KT 14/03 A3008 RMK A01 T01400034  RH  049%=      5-min Rain = 0
KMC5 250137Z 08006KT 14/04 A3008 RMK A01 T01400035  RH  049%=      5-min Rain = 0
KMC5 250138Z 07006KT 14/04 A3008 RMK A01 T01400036  RH  049%=      5-min Rain = 0
KMC5 250139Z 07006KT 14/04 A3008 RMK A01 T01380036  RH  050%=      5-min Rain = 0
KMC5 250140Z 07006KT 14/04 A3008 RMK A01 T01360036  RH  051%=      5-min Rain = 0
KMC5 250141Z 07005KT 14/04 A3009 RMK A01 T01350036  RH  051%=      5-min Rain = 0
KMC5 250142Z 06005KT 13/04 A3009 RMK A01 T01330036  RH  052%=      5-min Rain = 0
KMC5 250143Z 06005KT 13/04 A3009 RMK A01 T01320035  RH  052%=      5-min Rain = 0
KMC5 250144Z 06005KT 13/04 A3009 RMK A01 T01320036  RH  052%=      5-min Rain = 0
KMC5 250145Z 07005KT 13/04 A3009 RMK A01 T01320036  RH  052%=      5-min Rain = 0
KMC5 250146Z 07005KT 13/04 A3009 RMK A01 T01320036  RH  052%=      5-min Rain = 0
KMC5 250147Z 07005KT 13/04 A3009 RMK A01 T01320036  RH  052%=      5-min Rain = 0
KMC5 250148Z 06005KT 13/04 A3009 RMK A01 T01320036  RH  052%=      5-min Rain = 0
KMC5 250149Z 06004KT 13/04 A3009 RMK A01 T01320036  RH  052%=      5-min Rain = 0
KMC5 250150Z 06004KT 13/04 A3009 RMK A01 T01320037  RH  052%=      5-min Rain = 0
KMC5 250151Z 06004KT 13/04 A3009 RMK A01 T01320037  RH  053%=      5-min Rain = 0
KMC5 250152Z 06005KT 13/04 A3009 RMK A01 T01320037  RH  052%=      5-min Rain = 0
KMC5 250153Z 06005KT 13/04 A3009 RMK A01 T01330037  RH  052%=      5-min Rain = 0
KMC5 250154Z 05005KT 13/04 A3009 RMK A01 T01340037  RH  052%=      5-min Rain = 0
KMC5 250155Z 05005KT 13/04 A3009 RMK A01 T01330038  RH  053%=      5-min Rain = 0
KMC5 250156Z 05005KT 13/04 A3009 RMK A01 T01310039  RH  054%=      5-min Rain = 0
KMC5 250157Z 05005KT 13/04 A3009 RMK A01 T01290040  RH  055%=      5-min Rain = 0
KMC5 250158Z 06005KT 13/04 A3009 RMK A01 T01280040  RH  055%=      5-min Rain = 0
KMC5 250159Z 06005KT 13/04 A3009 RMK A01 T01270040  RH  055%=      5-min Rain = 0
KMC5 250200Z 06005KT 13/04 A3009 RMK A01 T01270040  RH  055%=      5-min Rain = 0
KMC5 250201Z 06006KT 13/04 A3009 RMK A01 T01280041  RH  055%=      5-min Rain = 0
KMC5 250202Z 05006KT 13/04 A3009 RMK A01 T01280041  RH  056%=      5-min Rain = 0
KMC5 250203Z 05006KT 13/04 A3009 RMK A01 T01260041  RH  056%=      5-min Rain = 0
KMC5 250204Z 05008KT 12/04 A3009 RMK A01 T01240041  RH  057%=      5-min Rain = 0
KMC5 250205Z 05006KT 12/04 A3009 RMK A01 T01240043  RH  058%=      5-min Rain = 0
KMC5 250206Z 06007KT 12/04 A3009 RMK A01 T01230044  RH  058%=      5-min Rain = 0
KMC5 250207Z 06006KT 12/04 A3009 RMK A01 T01220044  RH  059%=      5-min Rain = 0
KMC5 250208Z 06006KT 12/04 A3009 RMK A01 T01200043  RH  059%=      5-min Rain = 0
KMC5 250209Z 06006KT 12/04 A3009 RMK A01 T01190043  RH  060%=      5-min Rain = 0
KMC5 250210Z 07006KT 12/04 A3009 RMK A01 T01190043  RH  059%=      5-min Rain = 0
KMC5 250211Z 07007KT 12/04 A3009 RMK A01 T01200043  RH  060%=      5-min Rain = 0
KMC5 250212Z 07007KT 12/04 A3009 RMK A01 T01190043  RH  060%=      5-min Rain = 0
KMC5 250213Z 07007KT 12/04 A3009 RMK A01 T01190043  RH  059%=      5-min Rain = 0
KMC5 250214Z 07008KT 12/04 A3009 RMK A01 T01190043  RH  059%=      5-min Rain = 0
KMC5 250215Z 07008KT 12/04 A3009 RMK A01 T01200042  RH  059%=      5-min Rain = 0
KMC5 250216Z 07008KT 12/04 A3009 RMK A01 T01210042  RH  059%=      5-min Rain = 0
KMC5 250217Z 07008KT 12/04 A3009 RMK A01 T01210042  RH  059%=      5-min Rain = 0
KMC5 250218Z 07008KT 12/04 A3009 RMK A01 T01220043  RH  059%=      5-min Rain = 0
KMC5 250219Z 07009KT 12/04 A3009 RMK A01 T01210043  RH  059%=      5-min Rain = 0
KMC5 250220Z 07009KT 12/04 A3009 RMK A01 T01210043  RH  059%=      5-min Rain = 0
KMC5 250221Z 07009KT 12/04 A3009 RMK A01 T01200042  RH  059%=      5-min Rain = 0
KMC5 250222Z 07009KT 12/04 A3009 RMK A01 T01210042  RH  059%=      5-min Rain = 0
KMC5 250223Z 08009KT 12/04 A3009 RMK A01 T01210042  RH  059%=      5-min Rain = 0
KMC5 250224Z 07009KT 12/04 A3009 RMK A01 T01200043  RH  059%=      5-min Rain = 0
KMC5 250225Z 08009KT 12/04 A3009 RMK A01 T01190043  RH  059%=      5-min Rain = 0
KMC5 250226Z 08008KT 12/04 A3009 RMK A01 T01190043  RH  060%=      5-min Rain = 0
KMC5 250227Z 08008KT 12/04 A3009 RMK A01 T01180043  RH  060%=      5-min Rain = 0
KMC5 250228Z 08008KT 12/04 A3009 RMK A01 T01170042  RH  060%=      5-min Rain = 0
KMC5 250229Z 08008KT 12/04 A3009 RMK A01 T01160042  RH  060%=      5-min Rain = 0
KMC5 250230Z 07008KT 12/04 A3009 RMK A01 T01170043  RH  060%=      5-min Rain = 0
KMC5 250231Z 07008KT 12/04 A3009 RMK A01 T01160043  RH  061%=      5-min Rain = 0
KMC5 250232Z 07007KT 12/04 A3009 RMK A01 T01150043  RH  061%=      5-min Rain = 0
KMC5 250233Z 07007KT 12/04 A3009 RMK A01 T01150043  RH  061%=      5-min Rain = 0
KMC5 250234Z 07007KT 11/04 A3009 RMK A01 T01140042  RH  061%=      5-min Rain = 0
KMC5 250235Z 07007KT 11/04 A3009 RMK A01 T01130042  RH  062%=      5-min Rain = 0
KMC5 250236Z 07007KT 11/04 A3009 RMK A01 T01110042  RH  063%=      5-min Rain = 0
KMC5 250237Z 08007KT 11/04 A3009 RMK A01 T01110042  RH  063%=      5-min Rain = 0
KMC5 250238Z 08007KT 11/04 A3009 RMK A01 T01110042  RH  062%=      5-min Rain = 0
KMC5 250239Z 08007KT 11/04 A3009 RMK A01 T01130042  RH  062%=      5-min Rain = 0
KMC5 250240Z 08007KT 11/04 A3009 RMK A01 T01130042  RH  061%=      5-min Rain = 0
KMC5 250241Z 08007KT 11/04 A3009 RMK A01 T01140042  RH  061%=      5-min Rain = 0
KMC5 250242Z 08007KT 11/04 A301 RMK A01 T01140042  RH  061%=      5-min Rain = 0
KMC5 250243Z 08007KT 11/04 A301 RMK A01 T01140042  RH  061%=      5-min Rain = 0
KMC5 250244Z 07007KT 11/04 A301 RMK A01 T01130042  RH  062%=      5-min Rain = 0
KMC5 250245Z 07007KT 11/04 A3009 RMK A01 T01130042  RH  062%=      5-min Rain = 0
KMC5 250246Z 07007KT 11/04 A3009 RMK A01 T01130042  RH  062%=      5-min Rain = 0
KMC5 250247Z 07007KT 11/04 A3009 RMK A01 T01120042  RH  062%=      5-min Rain = 0
KMC5 250248Z 07007KT 11/04 A3009 RMK A01 T01120042  RH  062%=      5-min Rain = 0
KMC5 250249Z 07007KT 11/04 A301 RMK A01 T01110042  RH  062%=      5-min Rain = 0
KMC5 250250Z 07006KT 11/04 A301 RMK A01 T01110042  RH  062%=      5-min Rain = 0
KMC5 250251Z 08007KT 11/04 A301 RMK A01 T01110042  RH  062%=      5-min Rain = 0
KMC5 250252Z 08006KT 11/04 A301 RMK A01 T01120042  RH  062%=      5-min Rain = 0
KMC5 250253Z 08007KT 11/04 A301 RMK A01 T01120041  RH  062%=      5-min Rain = 0
KMC5 250254Z 08007KT 11/04 A301 RMK A01 T01140042  RH  061%=      5-min Rain = 0
KMC5 250255Z 08007KT 12/04 A301 RMK A01 T01150042  RH  061%=      5-min Rain = 0
KMC5 250256Z 07007KT 12/04 A301 RMK A01 T01150042  RH  061%=      5-min Rain = 0
KMC5 250257Z 07007KT 11/04 A301 RMK A01 T01140042  RH  061%=      5-min Rain = 0
KMC5 250258Z 07007KT 11/04 A301 RMK A01 T01140042  RH  061%=      5-min Rain = 0
KMC5 250259Z 07007KT 11/04 A301 RMK A01 T01130042  RH  062%=      5-min Rain = 0
KMC5 250300Z 07007KT 11/04 A301 RMK A01 T01130042  RH  062%=      5-min Rain = 0
KMC5 250301Z 07007KT 11/04 A301 RMK A01 T01120042  RH  062%=      5-min Rain = 0
KMC5 250302Z 07006KT 11/04 A301 RMK A01 T01120042  RH  062%=      5-min Rain = 0
KMC5 250303Z 07006KT 11/04 A301 RMK A01 T01130042  RH  062%=      5-min Rain = 0
KMC5 250304Z 07006KT 11/04 A301 RMK A01 T01120042  RH  062%=      5-min Rain = 0
KMC5 250305Z 07006KT 11/04 A301 RMK A01 T01120042  RH  062%=      5-min Rain = 0
KMC5 250306Z 08006KT 11/04 A301 RMK A01 T01120042  RH  062%=      5-min Rain = 0
KMC5 250307Z 07006KT 11/04 A301 RMK A01 T01110042  RH  062%=      5-min Rain = 0
KMC5 250308Z 07006KT 11/04 A301 RMK A01 T01110042  RH  063%=      5-min Rain = 0
KMC5 250309Z 07006KT 11/04 A301 RMK A01 T01110042  RH  063%=      5-min Rain = 0
KMC5 250310Z 06006KT 11/04 A301 RMK A01 T01110042  RH  063%=      5-min Rain = 0
KMC5 250311Z 06006KT 11/04 A301 RMK A01 T01110042  RH  063%=      5-min Rain = 0
KMC5 250312Z 06005KT 11/04 A301 RMK A01 T01120042  RH  062%=      5-min Rain = 0
KMC5 250313Z 06006KT 11/04 A3011 RMK A01 T01130042  RH  062%=      5-min Rain = 0
KMC5 250314Z 06006KT 11/04 A3011 RMK A01 T01120042  RH  062%=      5-min Rain = 0
KMC5 250315Z 06006KT 11/04 A3011 RMK A01 T01120042  RH  062%=      5-min Rain = 0
KMC5 250316Z 06007KT 11/04 A3011 RMK A01 T01110042  RH  062%=      5-min Rain = 0
KMC5 250317Z 06006KT 11/04 A3011 RMK A01 T01130042  RH  062%=      5-min Rain = 0
KMC5 250318Z 05006KT 11/04 A3011 RMK A01 T01130043  RH  062%=      5-min Rain = 0
KMC5 250319Z 06006KT 11/04 A3011 RMK A01 T01130044  RH  062%=      5-min Rain = 0
KMC5 250320Z 05005KT 11/04 A3011 RMK A01 T01110043  RH  063%=      5-min Rain = 0
KMC5 250321Z 05006KT 11/04 A3011 RMK A01 T01090043  RH  064%=      5-min Rain = 0
KMC5 250322Z 05006KT 11/04 A3011 RMK A01 T01080044  RH  064%=      5-min Rain = 0
KMC5 250323Z 05006KT 11/04 A3011 RMK A01 T01080044  RH  064%=      5-min Rain = 0
KMC5 250324Z 05006KT 11/04 A3011 RMK A01 T01090044  RH  064%=      5-min Rain = 0
KMC5 250325Z 05007KT 11/05 A3011 RMK A01 T01090045  RH  065%=      5-min Rain = 0
KMC5 250326Z 05006KT 11/04 A3011 RMK A01 T01090044  RH  065%=      5-min Rain = 0
KMC5 250327Z 05006KT 11/05 A3011 RMK A01 T01090045  RH  064%=      5-min Rain = 0
KMC5 250328Z 05005KT 11/05 A3011 RMK A01 T01090045  RH  064%=      5-min Rain = 0
KMC5 250329Z 05005KT 11/05 A3011 RMK A01 T01100045  RH  064%=      5-min Rain = 0
KMC5 250330Z 05005KT 11/05 A3011 RMK A01 T01100045  RH  064%=      5-min Rain = 0
KMC5 250331Z 05005KT 11/05 A3011 RMK A01 T01090045  RH  065%=      5-min Rain = 0
KMC5 250332Z 05005KT 11/05 A3011 RMK A01 T01090045  RH  065%=      5-min Rain = 0
KMC5 250333Z 05005KT 11/05 A3011 RMK A01 T01080045  RH  065%=      5-min Rain = 0
KMC5 250334Z 05005KT 11/05 A3011 RMK A01 T01080045  RH  065%=      5-min Rain = 0
KMC5 250335Z 05005KT 11/05 A3011 RMK A01 T01080045  RH  065%=      5-min Rain = 0
KMC5 250336Z 05005KT 11/05 A3011 RMK A01 T01080045  RH  065%=      5-min Rain = 0
KMC5 250337Z 05004KT 11/04 A3012 RMK A01 T01100044  RH  064%=      5-min Rain = 0
KMC5 250338Z 05004KT 11/04 A3012 RMK A01 T01100044  RH  064%=      5-min Rain = 0
KMC5 250339Z 05004KT 11/05 A3012 RMK A01 T01110045  RH  064%=      5-min Rain = 0
KMC5 250340Z 05005KT 11/04 A3012 RMK A01 T01110044  RH  063%=      5-min Rain = 0
KMC5 250341Z 05005KT 11/04 A3012 RMK A01 T01120044  RH  063%=      5-min Rain = 0
KMC5 250342Z 05005KT 11/05 A3012 RMK A01 T01130045  RH  063%=      5-min Rain = 0
KMC5 250343Z 04005KT 11/05 A3012 RMK A01 T01130045  RH  063%=      5-min Rain = 0
KMC5 250344Z 04005KT 11/04 A3012 RMK A01 T01120044  RH  063%=      5-min Rain = 0
KMC5 250345Z 04005KT 11/05 A3012 RMK A01 T01110045  RH  064%=      5-min Rain = 0
KMC5 250346Z 04005KT 11/05 A3012 RMK A01 T01100045  RH  064%=      5-min Rain = 0
KMC5 250347Z 05004KT 11/05 A3012 RMK A01 T01090045  RH  064%=      5-min Rain = 0
KMC5 250348Z 05005KT 11/05 A3012 RMK A01 T01090045  RH  064%=      5-min Rain = 0
KMC5 250349Z 05004KT 11/05 A3012 RMK A01 T01090045  RH  064%=      5-min Rain = 0
KMC5 250350Z 05004KT 11/05 A3012 RMK A01 T01090045  RH  065%=      5-min Rain = 0
KMC5 250351Z 04006KT 11/05 A3013 RMK A01 T01080045  RH  065%=      5-min Rain = 0
KMC5 250352Z 04008KT 11/05 A3013 RMK A01 T01070045  RH  066%=      5-min Rain = 0
KMC5 250353Z 04008KT 10/05 A3013 RMK A01 T01040046  RH  067%=      5-min Rain = 0
KMC5 250354Z 04007KT 10/05 A3013 RMK A01 T01020045  RH  068%=      5-min Rain = 0
KMC5 250355Z 04008KT 10/05 A3013 RMK A01 T01020046  RH  068%=      5-min Rain = 0
KMC5 250356Z 04008KT 10/05 A3013 RMK A01 T01020047  RH  068%=      5-min Rain = 0
KMC5 250357Z 04008KT 10/05 A3013 RMK A01 T01010047  RH  069%=      5-min Rain = 0
KMC5 250358Z 04008KT 10/05 A3013 RMK A01 T01010047  RH  069%=      5-min Rain = 0
KMC5 250359Z 04008KT 10/05 A3013 RMK A01 T01000047  RH  070%=      5-min Rain = 0
KMC5 250400Z 04008KT 10/05 A3013 RMK A01 T00990047  RH  070%=      5-min Rain = 0
KMC5 250401Z 04008KT 10/05 A3013 RMK A01 T00980047  RH  071%=      5-min Rain = 0
KMC5 250402Z 04008KT 10/05 A3013 RMK A01 T00970047  RH  071%=      5-min Rain = 0
KMC5 250403Z 04008KT 10/05 A3013 RMK A01 T00970047  RH  071%=      5-min Rain = 0
KMC5 250404Z 04008KT 10/05 A3013 RMK A01 T00970046  RH  071%=      5-min Rain = 0
KMC5 250405Z 04008KT 10/05 A3013 RMK A01 T00970046  RH  071%=      5-min Rain = 0
KMC5 250406Z 04008KT 10/05 A3013 RMK A01 T00970046  RH  070%=      5-min Rain = 0
KMC5 250407Z 04007KT 10/05 A3013 RMK A01 T00980045  RH  069%=      5-min Rain = 0
KMC5 250408Z 04008KT 10/04 A3013 RMK A01 T00990044  RH  069%=      5-min Rain = 0
KMC5 250409Z 04007KT 10/04 A3013 RMK A01 T01000043  RH  067%=      5-min Rain = 0
KMC5 250410Z 04007KT 10/04 A3013 RMK A01 T01020043  RH  067%=      5-min Rain = 0
KMC5 250411Z 04007KT 10/04 A3014 RMK A01 T01020043  RH  067%=      5-min Rain = 0
KMC5 250412Z 03007KT 10/04 A3014 RMK A01 T01010043  RH  067%=      5-min Rain = 0
KMC5 250413Z 03007KT 10/04 A3014 RMK A01 T01010043  RH  067%=      5-min Rain = 0
KMC5 250414Z 03007KT 10/04 A3014 RMK A01 T01010043  RH  067%=      5-min Rain = 0
KMC5 250415Z 03008KT 10/04 A3014 RMK A01 T01000042  RH  067%=      5-min Rain = 0
KMC5 250416Z 03008KT 10/04 A3014 RMK A01 T01000042  RH  067%=      5-min Rain = 0
KMC5 250417Z 03008KT 10/04 A3014 RMK A01 T01000042  RH  068%=      5-min Rain = 0
KMC5 250418Z 03009KT 10/04 A3014 RMK A01 T00990042  RH  067%=      5-min Rain = 0
KMC5 250419Z 03009KT 10/04 A3014 RMK A01 T00990041  RH  067%=      5-min Rain = 0
KMC5 250420Z 03010KT 10/04 A3014 RMK A01 T01010041  RH  066%=      5-min Rain = 0
KMC5 250421Z 03009KT 10/04 A3014 RMK A01 T01020042  RH  066%=      5-min Rain = 0
KMC5 250422Z 03009KT 10/04 A3014 RMK A01 T01030041  RH  066%=      5-min Rain = 0
KMC5 250423Z 04009KT 10/04 A3014 RMK A01 T01030042  RH  066%=      5-min Rain = 0
KMC5 250424Z 04009KT 10/04 A3014 RMK A01 T01030042  RH  066%=      5-min Rain = 0
KMC5 250425Z 04009KT 10/04 A3014 RMK A01 T01020042  RH  066%=      5-min Rain = 0
KMC5 250426Z 03009KT 10/04 A3014 RMK A01 T01020042  RH  066%=      5-min Rain = 0
KMC5 250427Z 03009KT 10/04 A3014 RMK A01 T01010041  RH  066%=      5-min Rain = 0
KMC5 250428Z 03009KT 10/04 A3014 RMK A01 T01010041  RH  067%=      5-min Rain = 0
KMC5 250429Z 03009KT 10/04 A3014 RMK A01 T00990041  RH  067%=      5-min Rain = 0
KMC5 250430Z 03009KT 10/04 A3014 RMK A01 T00990042  RH  068%=      5-min Rain = 0
KMC5 250431Z 03009KT 10/04 A3014 RMK A01 T00980042  RH  068%=      5-min Rain = 0
KMC5 250432Z 04009KT 10/04 A3014 RMK A01 T00980042  RH  068%=      5-min Rain = 0
KMC5 250433Z 04008KT 10/04 A3014 RMK A01 T00980042  RH  068%=      5-min Rain = 0
KMC5 250434Z 03008KT 10/04 A3014 RMK A01 T00990042  RH  068%=      5-min Rain = 0
KMC5 250435Z 03008KT 10/04 A3014 RMK A01 T00980042  RH  068%=      5-min Rain = 0
KMC5 250436Z 04007KT 10/04 A3014 RMK A01 T00970042  RH  069%=      5-min Rain = 0
KMC5 250437Z 04007KT 10/04 A3014 RMK A01 T00960042  RH  069%=      5-min Rain = 0
KMC5 250438Z 04007KT 10/04 A3014 RMK A01 T00960042  RH  069%=      5-min Rain = 0
KMC5 250439Z 04007KT 10/04 A3014 RMK A01 T00960042  RH  069%=      5-min Rain = 0
KMC5 250440Z 04007KT 10/04 A3015 RMK A01 T00950042  RH  069%=      5-min Rain = 0
KMC5 250441Z 04007KT 10/04 A3015 RMK A01 T00960042  RH  069%=      5-min Rain = 0
KMC5 250442Z 04007KT 10/04 A3015 RMK A01 T00960042  RH  069%=      5-min Rain = 0
KMC5 250443Z 04007KT 10/04 A3015 RMK A01 T00960042  RH  069%=      5-min Rain = 0
KMC5 250444Z 03007KT 10/04 A3015 RMK A01 T00950043  RH  070%=      5-min Rain = 0
KMC5 250445Z 03007KT 10/04 A3015 RMK A01 T00950043  RH  070%=      5-min Rain = 0
KMC5 250446Z 04007KT 09/04 A3015 RMK A01 T00940043  RH  070%=      5-min Rain = 0
KMC5 250447Z 04006KT 09/04 A3015 RMK A01 T00940042  RH  070%=      5-min Rain = 0
KMC5 250448Z 05006KT 09/04 A3015 RMK A01 T00940042  RH  070%=      5-min Rain = 0
KMC5 250449Z 05006KT 09/04 A3015 RMK A01 T00940042  RH  070%=      5-min Rain = 0
KMC5 250450Z 05006KT 09/04 A3015 RMK A01 T00930042  RH  070%=      5-min Rain = 0
KMC5 250451Z 05005KT 09/04 A3015 RMK A01 T00930042  RH  070%=      5-min Rain = 0
KMC5 250452Z 06005KT 09/04 A3015 RMK A01 T00930041  RH  070%=      5-min Rain = 0
KMC5 250453Z 06005KT 09/04 A3015 RMK A01 T00940041  RH  070%=      5-min Rain = 0
KMC5 250454Z 05005KT 10/04 A3015 RMK A01 T00950041  RH  069%=      5-min Rain = 0
KMC5 250455Z 05005KT 10/04 A3015 RMK A01 T00950041  RH  069%=      5-min Rain = 0
KMC5 250456Z 05005KT 10/04 A3015 RMK A01 T00960041  RH  069%=      5-min Rain = 0
KMC5 250457Z 05005KT 10/04 A3015 RMK A01 T00970041  RH  068%=      5-min Rain = 0
KMC5 250458Z 05006KT 10/04 A3015 RMK A01 T00970041  RH  068%=      5-min Rain = 0
KMC5 250459Z 04006KT 10/04 A3015 RMK A01 T00980041  RH  068%=      5-min Rain = 0

Page generated in 0.0727 seconds.